M I D A S
Marine Information and Data Acquisition System
Tripno 1898 of the Zeeleeuw from 2010-06-10 07:17:39 to 2010-06-10 16:38:57
Back to CruiseResearch ActivitiesStationsMapUnderway DataData graphs

EquipmentUnitsComment
TimeDGPSUTC
LatitudeDGPSDM.mWGS84
LongitudeDGPSDM.mWGS84
TemperatureSBE03/SBE38deg celciusITS90
ConductivitySBE21S/mITS90
SalinitySBE21 Practical Salinity Units
ChlorophylAChelsea fluorimeterg/lCalibrated in Aceton
Missing or incorrect values are displayed as -999
Sea surface data collected by the RV Zeeleeuw from 2010-06-10 07:52:38 to 2010-06-10 16:42:46
                                                                                    Next 1000 lines
Time Latitude Longitude Temperature Conductivity Salinity ChlorophylA
2010-06-10 07:52:48 51°13.661 2°55.954 20.5021 0.281795 1.633661 -0.965744
2010-06-10 07:52:53 51°13.662 2°55.95 20.544 0.281795 1.633688 -1.000568
2010-06-10 07:52:58 51°13.663 2°55.944 20.5356 0.281795 1.633688 -1.000568
2010-06-10 07:53:03 51°13.664 2°55.939 20.5405 0.281795 1.633688 -1.000568
2010-06-10 07:53:09 51°13.665 2°55.931 20.5437 0.281795 1.633688 -1.000568
2010-06-10 07:53:14 51°13.667 2°55.923 20.5497 0.281795 1.633715 -1.000568
2010-06-10 07:53:20 51°13.668 2°55.914 20.5466 0.281795 1.633715 -1.000568
2010-06-10 07:53:25 51°13.669 2°55.907 20.5539 0.281795 1.633688 -1.000568
2010-06-10 07:53:31 51°13.671 2°55.897 20.5523 0.281795 1.633688 -1.035392
2010-06-10 07:53:36 51°13.672 2°55.888 20.5484 0.281795 1.633688 -1.035392
2010-06-10 07:53:41 51°13.673 2°55.88 20.5483 0.281795 1.633661 -1.035392
2010-06-10 07:53:46 51°13.675 2°55.871 20.5477 0.281795 1.633661 -1.035392
2010-06-10 07:53:51 51°13.677 2°55.862 20.5534 0.281795 1.633661 -1.000568
2010-06-10 07:53:56 51°13.679 2°55.853 20.5527 0.281795 1.633634 -1.000568
2010-06-10 07:54:01 51°13.681 2°55.844 20.5521 0.281795 1.633661 -1.000568
2010-06-10 07:54:06 51°13.683 2°55.835 20.5452 0.281795 1.633661 -1.000568
2010-06-10 07:54:11 51°13.686 2°55.826 20.5551 0.281795 1.633688 -1.035392
2010-06-10 07:54:16 51°13.689 2°55.817 20.5546 0.281795 1.633688 -1.000568
2010-06-10 07:54:21 51°13.692 2°55.808 20.548 0.281795 1.633688 -1.000568
2010-06-10 07:54:26 51°13.695 2°55.799 20.5528 0.281795 1.633688 -1.000568
2010-06-10 07:54:31 51°13.699 2°55.79 20.5471 0.281795 1.633661 -1.000568
2010-06-10 07:54:36 51°13.702 2°55.782 20.5506 0.281795 1.633661 -1.000568
2010-06-10 07:54:41 51°13.706 2°55.773 20.5518 0.281795 1.633688 -1.000568
2010-06-10 07:54:46 51°13.71 2°55.764 20.5647 0.281795 1.633688 -1.000568
2010-06-10 07:54:51 51°13.714 2°55.756 20.5628 0.281795 1.633688 -1.000568
2010-06-10 07:54:56 51°13.718 2°55.747 20.5646 0.281795 1.633715 -1.000568
2010-06-10 07:55:01 51°13.723 2°55.739 20.5681 0.281795 1.633715 -1.000568
2010-06-10 07:55:06 51°13.728 2°55.73 20.5682 0.281795 1.633715 -1.000568
2010-06-10 07:55:11 51°13.734 2°55.722 20.5676 0.281795 1.633688 -1.000568
2010-06-10 07:55:16 51°13.74 2°55.714 20.5677 0.281795 1.633661 -1.000568
2010-06-10 07:55:21 51°13.746 2°55.707 20.569 0.281795 1.633661 -0.965744
2010-06-10 07:55:26 51°13.753 2°55.699 20.5722 0.281795 1.633634 -1.000568
2010-06-10 07:55:31 51°13.76 2°55.692 20.5735 0.281795 1.633634 -1.000568
2010-06-10 07:55:36 51°13.766 2°55.685 20.5724 0.281795 1.633634 -1.000568
2010-06-10 07:55:41 51°13.773 2°55.678 20.5723 0.281899 1.634246 -0.965744
2010-06-10 07:55:46 51°13.78 2°55.671 20.5745 0.281795 1.633661 -1.035392
2010-06-10 07:55:51 51°13.787 2°55.665 20.5737 0.281795 1.633661 -1.000568
2010-06-10 07:55:56 51°13.794 2°55.658 20.5758 0.281795 1.633661 -1.000568
2010-06-10 07:56:01 51°13.8 2°55.652 20.5738 0.281795 1.633661 -1.000568
2010-06-10 07:56:06 51°13.807 2°55.646 20.5739 0.281795 1.633661 -1.000568
2010-06-10 07:56:12 51°13.814 2°55.64 20.5749 0.281795 1.633634 -1.000568
2010-06-10 07:56:16 51°13.819 2°55.635 20.5804 0.281795 1.633608 -1.000568
2010-06-10 07:56:21 51°13.825 2°55.63 20.5875 0.281795 1.633608 -1.000568
2010-06-10 07:56:26 51°13.83 2°55.626 20.5889 0.281795 1.633581 -1.000568
2010-06-10 07:56:31 51°13.836 2°55.622 20.5849 0.281795 1.633581 -1.000568
2010-06-10 07:56:36 51°13.842 2°55.618 20.5822 0.281795 1.633581 -1.000568
2010-06-10 07:56:41 51°13.847 2°55.614 20.5783 0.281795 1.633608 -1.000568
2010-06-10 07:56:46 51°13.852 2°55.611 20.5841 0.281795 1.633581 -1.000568
2010-06-10 07:56:51 51°13.858 2°55.608 20.5784 0.281795 1.633608 -1.000568
2010-06-10 07:56:56 51°13.863 2°55.606 20.5758 0.281795 1.633608 -1.000568
2010-06-10 07:57:01 51°13.868 2°55.604 20.5772 0.281795 1.633581 -0.965744
2010-06-10 07:57:06 51°13.873 2°55.602 20.5822 0.281795 1.633581 -0.965744
2010-06-10 07:57:11 51°13.878 2°55.601 20.5778 0.281795 1.633581 -1.035392
2010-06-10 07:57:16 51°13.883 2°55.6 20.5778 0.281795 1.633608 -1.035392
2010-06-10 07:57:21 51°13.888 2°55.599 20.5781 0.281795 1.633608 -1.000568
2010-06-10 07:57:25 51°13.892 2°55.599 20.5831 0.281795 1.633634 -1.035392
2010-06-10 07:57:31 51°13.898 2°55.6 20.5848 0.281795 1.633661 -1.035392
2010-06-10 07:57:36 51°13.902 2°55.6 20.5856 0.281795 1.633661 -1.035392
2010-06-10 07:57:41 51°13.906 2°55.601 20.5855 0.281795 1.633661 -0.965744
2010-06-10 07:57:46 51°13.911 2°55.602 20.5874 0.281795 1.633661 -1.035392
2010-06-10 07:57:51 51°13.914 2°55.604 20.5839 0.281795 1.633634 -1.000568
2010-06-10 07:57:56 51°13.918 2°55.605 20.5779 0.281795 1.633634 -1.000568
2010-06-10 07:58:01 51°13.922 2°55.607 20.5786 0.281795 1.633634 -1.000568
2010-06-10 07:58:05 51°13.925 2°55.609 20.578 0.281795 1.633634 -1.000568
2010-06-10 07:58:11 51°13.929 2°55.611 20.5818 0.281795 1.633608 -0.965744
2010-06-10 07:58:15 51°13.931 2°55.613 20.5813 0.281795 1.633608 -1.000568
2010-06-10 07:58:20 51°13.934 2°55.615 20.5814 0.281795 1.633608 -1.000568
2010-06-10 07:58:25 51°13.937 2°55.617 20.5706 0.281795 1.633634 -1.000568
2010-06-10 07:58:29 51°13.939 2°55.619 20.5851 0.281795 1.633608 -1.000568
2010-06-10 07:58:34 51°13.941 2°55.621 20.5949 0.281795 1.633608 -1.000568
2010-06-10 07:58:39 51°13.944 2°55.624 20.5909 0.281795 1.633608 -0.965744
2010-06-10 07:58:44 51°13.946 2°55.626 20.5775 0.281795 1.633581 -1.000568
2010-06-10 07:58:49 51°13.948 2°55.628 20.5854 0.281795 1.633608 -1.000568
2010-06-10 07:58:53 51°13.949 2°55.629 20.5827 0.281795 1.633608 -0.965744
2010-06-10 07:58:58 51°13.95 2°55.631 20.5862 0.281795 1.633581 -1.035392
2010-06-10 07:59:03 51°13.951 2°55.632 20.5867 0.281795 1.633581 -1.035392
2010-06-10 07:59:08 51°13.952 2°55.633 20.5898 0.281795 1.633608 -1.035392
2010-06-10 07:59:12 51°13.953 2°55.633 20.5866 0.281795 1.633608 -1.000568
2010-06-10 07:59:18 51°13.953 2°55.633 20.5943 0.281795 1.633581 -1.000568
2010-06-10 07:59:22 51°13.954 2°55.633 20.6006 0.281795 1.633581 -0.965744
2010-06-10 07:59:28 51°13.954 2°55.632 20.5908 0.281795 1.633581 -1.000568
2010-06-10 07:59:33 51°13.954 2°55.63 20.5805 0.281795 1.633581 -1.000568
2010-06-10 07:59:37 51°13.953 2°55.628 20.5739 0.281795 1.633581 -0.965744
2010-06-10 07:59:43 51°13.953 2°55.625 20.541 0.281795 1.633527 -1.035392
2010-06-10 07:59:48 51°13.953 2°55.621 20.5221 0.281795 1.633554 -1.000568
2010-06-10 07:59:53 51°13.953 2°55.617 20.5149 0.281795 1.633554 -1.035392
2010-06-10 07:59:58 51°13.953 2°55.613 20.5544 0.281795 1.633581 -1.000568
2010-06-10 08:00:03 51°13.954 2°55.607 20.5052 0.281795 1.633581 -1.000568
2010-06-10 08:00:08 51°13.955 2°55.602 20.4831 0.281795 1.633634 -1.035392
2010-06-10 08:00:13 51°13.956 2°55.596 20.4952 0.281795 1.633634 -1.000568
2010-06-10 08:00:17 51°13.958 2°55.592 20.4936 0.281795 1.633661 -1.000568
2010-06-10 08:00:22 51°13.96 2°55.586 20.4882 0.281899 1.634246 -0.965744
2010-06-10 08:00:28 51°13.964 2°55.578 20.5105 0.281899 1.634246 -1.000568
2010-06-10 08:00:33 51°13.968 2°55.571 20.5637 0.281899 1.634246 -1.000568
2010-06-10 08:00:37 51°13.972 2°55.566 20.5862 0.281795 1.633581 -1.035392
2010-06-10 08:00:43 51°13.978 2°55.558 20.5868 0.281899 1.634246 -1.000568
2010-06-10 08:00:48 51°13.984 2°55.551 20.5883 0.281899 1.634273 -1.000568
2010-06-10 08:00:53 51°13.991 2°55.543 20.5895 0.281899 1.634273 -0.965744
2010-06-10 08:00:58 51°13.998 2°55.536 20.5876 0.281899 1.634273 -1.000568
2010-06-10 08:01:02 51°14.005 2°55.53 20.5831 0.281899 1.634273 -1.000568
2010-06-10 08:01:08 51°14.015 2°55.52 20.5712 0.281795 1.633581 -1.035392
2010-06-10 08:01:12 51°14.022 2°55.514 20.5797 0.281899 1.634193 -1.000568
2010-06-10 08:01:18 51°14.034 2°55.504 20.5764 0.281899 1.634166 -1.000568
2010-06-10 08:01:22 51°14.042 2°55.497 20.5286 0.281899 1.634219 -1.000568
2010-06-10 08:01:28 51°14.055 2°55.487 20.5286 0.281899 1.634219 -0.965744
2010-06-10 08:01:32 51°14.064 2°55.48 20.5236 0.281899 1.634219 -0.965744
2010-06-10 08:01:38 51°14.078 2°55.47 20.5621 0.281899 1.634219 -0.965744
2010-06-10 08:01:43 51°14.089 2°55.462 20.5592 0.281899 1.634219 -0.965744
2010-06-10 08:01:48 51°14.101 2°55.453 20.5492 0.281899 1.634219 -1.000568
2010-06-10 08:01:53 51°14.113 2°55.444 20.5439 0.281899 1.634246 -0.965744
2010-06-10 08:01:57 51°14.122 2°55.437 20.5501 0.281899 1.634193 -1.000568
2010-06-10 08:02:03 51°14.137 2°55.426 20.5536 0.281899 1.634193 -1.000568
2010-06-10 08:02:08 51°14.149 2°55.417 20.5553 0.281899 1.634219 -1.000568
2010-06-10 08:02:13 51°14.161 2°55.408 20.5604 0.281899 1.634219 -1.000568
2010-06-10 08:02:18 51°14.173 2°55.398 20.5615 0.281899 1.634219 -0.965744
2010-06-10 08:02:23 51°14.186 2°55.388 20.5485 0.281899 1.634246 -0.965744
2010-06-10 08:02:28 51°14.199 2°55.378 20.5519 0.281899 1.634246 -0.965744
2010-06-10 08:02:33 51°14.211 2°55.368 20.5551 0.281899 1.634246 -0.965744
2010-06-10 08:02:38 51°14.223 2°55.358 20.5697 0.281899 1.634246 -1.000568
2010-06-10 08:02:42 51°14.234 2°55.349 20.5419 0.281899 1.634219 -1.000568
2010-06-10 08:02:48 51°14.249 2°55.336 20.5398 0.281899 1.634273 -1.000568
2010-06-10 08:02:53 51°14.262 2°55.326 20.5535 0.281899 1.634246 -1.000568
2010-06-10 08:02:58 51°14.274 2°55.315 20.5461 0.281899 1.634273 -1.000568
2010-06-10 08:03:02 51°14.285 2°55.306 20.5547 0.281899 1.634273 -1.000568
2010-06-10 08:03:08 51°14.3 2°55.293 20.5601 0.281899 1.634246 -0.965744
2010-06-10 08:03:13 51°14.313 2°55.281 20.5252 0.281899 1.634246 -1.000568
2010-06-10 08:03:17 51°14.324 2°55.272 20.5242 0.281899 1.634246 -1.000568
2010-06-10 08:03:23 51°14.34 2°55.258 20.5627 0.281899 1.634246 -1.000568
2010-06-10 08:03:28 51°14.354 2°55.246 20.5901 0.281899 1.634246 -1.000568
2010-06-10 08:03:33 51°14.368 2°55.234 20.574 0.281899 1.634246 -1.000568
2010-06-10 08:03:38 51°14.381 2°55.22 20.5483 0.281899 1.634273 -1.000568
2010-06-10 08:03:43 51°14.394 2°55.205 20.5103 0.281899 1.6343 -1.000568
2010-06-10 08:03:48 51°14.408 2°55.19 20.5416 0.281899 1.6343 -0.965744
2010-06-10 08:03:52 51°14.419 2°55.179 20.5497 0.281899 1.634246 -1.000568
2010-06-10 08:03:58 51°14.435 2°55.16 20.5249 0.281899 1.634273 -0.965744
2010-06-10 08:04:02 51°14.446 2°55.147 20.5372 0.281899 1.634273 -0.965744
2010-06-10 08:04:08 51°14.463 2°55.128 20.5368 0.281899 1.634273 -1.000568
2010-06-10 08:04:13 51°14.477 2°55.111 20.5065 0.281899 1.634219 -0.965744
2010-06-10 08:04:17 51°14.488 2°55.098 20.5374 0.281899 1.634273 -1.000568
2010-06-10 08:04:23 51°14.505 2°55.078 20.5305 0.281899 1.634246 -1.000568
2010-06-10 08:04:28 51°14.52 2°55.062 20.5328 0.281899 1.634193 -1.000568
2010-06-10 08:04:33 51°14.535 2°55.046 20.5294 0.281899 1.634193 -1.000568
2010-06-10 08:04:38 51°14.549 2°55.029 20.5231 0.281899 1.634273 -0.965744
2010-06-10 08:04:43 51°14.564 2°55.012 20.5308 0.281899 1.634246 -1.000568
2010-06-10 08:04:48 51°14.579 2°54.995 20.5156 0.281899 1.634273 -1.035392
2010-06-10 08:04:53 51°14.594 2°54.979 20.5404 0.281899 1.634246 -1.000568
2010-06-10 08:04:58 51°14.609 2°54.963 20.5376 0.281899 1.634273 -1.000568
2010-06-10 08:05:02 51°14.621 2°54.949 20.5221 0.281899 1.634273 -1.000568
2010-06-10 08:05:08 51°14.639 2°54.93 20.5133 0.281899 1.634327 -1.035392
2010-06-10 08:05:13 51°14.654 2°54.914 20.5446 0.281899 1.6343 -0.965744
2010-06-10 08:05:17 51°14.666 2°54.9 20.5068 0.281899 1.634273 -1.035392
2010-06-10 08:05:22 51°14.681 2°54.885 20.5394 0.281899 1.6343 -1.000568
2010-06-10 08:05:28 51°14.698 2°54.866 20.5239 0.281899 1.634273 -1.000568
2010-06-10 08:05:33 51°14.713 2°54.851 20.5464 0.281899 1.634273 -1.000568
2010-06-10 08:05:38 51°14.728 2°54.834 20.5439 0.281899 1.6343 -1.000568
2010-06-10 08:05:43 51°14.743 2°54.818 20.4952 0.281899 1.6343 -1.000568
2010-06-10 08:05:48 51°14.758 2°54.801 20.5166 0.282003 1.634966 -1.000568
2010-06-10 08:05:52 51°14.769 2°54.788 20.5098 0.281899 1.634327 -1.000568
2010-06-10 08:05:58 51°14.787 2°54.769 20.5183 0.281899 1.634273 -0.965744
2010-06-10 08:06:02 51°14.799 2°54.757 20.5309 0.281899 1.634273 -0.965744
2010-06-10 08:06:08 51°14.818 2°54.738 20.5394 0.281899 1.634273 -1.000568
2010-06-10 08:06:12 51°14.83 2°54.725 20.5304 0.281899 1.634273 -1.035392
2010-06-10 08:06:18 51°14.847 2°54.705 20.5245 0.281899 1.634354 -1.000568
2010-06-10 08:06:23 51°14.861 2°54.687 20.5193 0.281899 1.634407 -1.000568
2010-06-10 08:06:28 51°14.875 2°54.669 20.5221 0.281899 1.634327 -1.000568
2010-06-10 08:06:33 51°14.889 2°54.652 20.4819 0.281899 1.634327 -1.000568
2010-06-10 08:06:37 51°14.9 2°54.638 20.5281 0.281899 1.634085 -0.965744
2010-06-10 08:06:43 51°14.917 2°54.616 20.5179 0.281899 1.633897 -1.000568
2010-06-10 08:06:48 51°14.932 2°54.599 20.5292 0.281899 1.633897 -0.965744
2010-06-10 08:06:53 51°14.946 2°54.581 20.5121 0.281899 1.634085 -1.000568
2010-06-10 08:06:58 51°14.959 2°54.563 20.5198 0.281899 1.634273 -1.000568
2010-06-10 08:07:02 51°14.97 2°54.549 20.5249 0.281899 1.634273 -1.000568
2010-06-10 08:07:08 51°14.987 2°54.527 20.5322 0.281899 1.634568 -0.965744
2010-06-10 08:07:13 51°15.001 2°54.509 20.5068 0.281899 1.63473 -1.035392
2010-06-10 08:07:18 51°15.015 2°54.492 20.5333 0.281899 1.63473 -1.000568
2010-06-10 08:07:22 51°15.026 2°54.477 20.5312 0.281899 1.634595 -1.000568
2010-06-10 08:07:28 51°15.042 2°54.456 20.5414 0.281899 1.634434 -1.000568
2010-06-10 08:07:33 51°15.056 2°54.438 20.5197 0.281899 1.634434 -1.000568
2010-06-10 08:07:37 51°15.067 2°54.424 20.5134 0.281899 1.634327 -0.965744
2010-06-10 08:07:42 51°15.081 2°54.406 20.5294 0.281899 1.634219 -0.965744
2010-06-10 08:07:48 51°15.098 2°54.385 20.5195 0.282003 1.634831 -0.965744
2010-06-10 08:07:53 51°15.112 2°54.367 20.5373 0.281899 1.634246 -1.000568
2010-06-10 08:07:58 51°15.126 2°54.348 20.4808 0.281899 1.634354 -0.965744
2010-06-10 08:08:03 51°15.139 2°54.33 20.5231 0.281899 1.634354 -0.965744
2010-06-10 08:08:08 51°15.153 2°54.312 20.507 0.282003 1.635019 -1.000568
2010-06-10 08:08:12 51°15.164 2°54.297 20.5272 0.282003 1.635019 -1.000568
2010-06-10 08:08:18 51°15.181 2°54.275 20.4963 0.282003 1.634992 -1.000568
2010-06-10 08:08:22 51°15.192 2°54.26 20.5313 0.281899 1.634327 -1.000568
2010-06-10 08:08:28 51°15.208 2°54.238 20.4841 0.282003 1.634966 -1.000568
2010-06-10 08:08:32 51°15.219 2°54.223 20.4908 0.282003 1.634966 -1.000568
2010-06-10 08:08:37 51°15.233 2°54.205 20.5186 0.282003 1.634912 -1.000568
2010-06-10 08:08:43 51°15.25 2°54.184 20.5063 0.282003 1.634939 -1.000568
2010-06-10 08:08:48 51°15.264 2°54.166 20.5294 0.282003 1.634966 -0.965744
2010-06-10 08:08:53 51°15.278 2°54.148 20.5247 0.282003 1.635019 -1.000568
2010-06-10 08:08:58 51°15.292 2°54.13 20.5291 0.282003 1.634966 -0.965744
2010-06-10 08:09:03 51°15.305 2°54.112 20.5236 0.282003 1.634966 -0.965744
2010-06-10 08:09:08 51°15.319 2°54.094 20.5153 0.282003 1.635019 -1.000568
2010-06-10 08:09:13 51°15.333 2°54.076 20.4992 0.282003 1.635019 -1.000568
2010-06-10 08:09:18 51°15.347 2°54.058 20.5155 0.282003 1.635046 -1.000568
2010-06-10 08:09:22 51°15.358 2°54.044 20.5408 0.282003 1.635019 -1.035392
2010-06-10 08:09:28 51°15.374 2°54.022 20.5031 0.282003 1.635046 -1.000568
2010-06-10 08:09:33 51°15.388 2°54.004 20.521 0.282003 1.635046 -1.000568
2010-06-10 08:09:37 51°15.399 2°53.99 20.5212 0.282003 1.635073 -1.035392
2010-06-10 08:09:42 51°15.413 2°53.972 20.5286 0.282003 1.635046 -0.965744
2010-06-10 08:09:48 51°15.429 2°53.95 20.5128 0.282003 1.6351 -1.035392
2010-06-10 08:09:53 51°15.443 2°53.932 20.5204 0.282003 1.635073 -1.000568
2010-06-10 08:09:58 51°15.457 2°53.913 20.5232 0.282003 1.6351 -0.965744
2010-06-10 08:10:03 51°15.471 2°53.896 20.5268 0.282003 1.6351 -0.965744
2010-06-10 08:10:08 51°15.484 2°53.877 20.5374 0.282003 1.635073 -0.965744
2010-06-10 08:10:13 51°15.498 2°53.859 20.5295 0.282003 1.635046 -1.000568
2010-06-10 08:10:18 51°15.512 2°53.841 20.5319 0.282003 1.635127 -1.035392
2010-06-10 08:10:22 51°15.523 2°53.826 20.5303 0.282003 1.635073 -1.000568
2010-06-10 08:10:28 51°15.539 2°53.805 20.5212 0.282003 1.635073 -1.000568
2010-06-10 08:10:32 51°15.55 2°53.79 20.5254 0.282003 1.635073 -1.000568
2010-06-10 08:10:38 51°15.567 2°53.769 20.5331 0.282003 1.6351 -1.000568
2010-06-10 08:10:42 51°15.578 2°53.755 20.5042 0.282003 1.6351 -1.000568
2010-06-10 08:10:48 51°15.595 2°53.733 20.5174 0.282003 1.635154 -1.000568
2010-06-10 08:10:53 51°15.609 2°53.717 20.5211 0.282108 1.635739 -0.965744
2010-06-10 08:10:57 51°15.621 2°53.703 20.5106 0.282003 1.635154 -1.000568
2010-06-10 08:11:03 51°15.639 2°53.685 20.5243 0.282003 1.635154 -1.000568
2010-06-10 08:11:08 51°15.654 2°53.671 20.5171 0.282003 1.635073 -1.000568
2010-06-10 08:11:13 51°15.669 2°53.658 20.5364 0.282003 1.6351 -1.000568
2010-06-10 08:11:18 51°15.685 2°53.644 20.5233 0.282003 1.635127 -1.000568
2010-06-10 08:11:22 51°15.698 2°53.634 20.5214 0.282003 1.635127 -1.000568
2010-06-10 08:11:28 51°15.717 2°53.619 20.533 0.282003 1.63518 -0.965744
2010-06-10 08:11:33 51°15.733 2°53.607 20.5399 0.282003 1.63518 -0.965744
2010-06-10 08:11:38 51°15.749 2°53.595 20.5356 0.282003 1.635154 -0.965744
2010-06-10 08:11:42 51°15.762 2°53.586 20.5174 0.282108 1.635846 -1.000568
2010-06-10 08:11:48 51°15.781 2°53.573 20.5159 0.282108 1.635766 -1.035392
2010-06-10 08:11:53 51°15.797 2°53.562 20.5342 0.282003 1.63518 -1.000568
2010-06-10 08:11:57 51°15.81 2°53.553 20.5336 0.282003 1.635154 -1.000568
2010-06-10 08:12:02 51°15.827 2°53.542 20.5144 0.282003 1.635154 -1.000568
2010-06-10 08:12:08 51°15.846 2°53.529 20.548 0.282003 1.635234 -1.000568
2010-06-10 08:12:13 51°15.863 2°53.519 20.5256 0.282003 1.63518 -1.000568
2010-06-10 08:12:18 51°15.879 2°53.508 20.5416 0.282003 1.635234 -0.965744
2010-06-10 08:12:23 51°15.895 2°53.497 20.5416 0.282003 1.635234 -1.000568
2010-06-10 08:12:28 51°15.911 2°53.486 20.5438 0.282003 1.635234 -1.035392
2010-06-10 08:12:32 51°15.924 2°53.478 20.5051 0.282003 1.635234 -1.035392
2010-06-10 08:12:38 51°15.944 2°53.464 20.5435 0.282003 1.635234 -0.965744
2010-06-10 08:12:42 51°15.957 2°53.456 20.5439 0.282108 1.635846 -1.000568
2010-06-10 08:12:48 51°15.976 2°53.443 20.5503 0.282108 1.635873 -1.000568
2010-06-10 08:12:52 51°15.989 2°53.434 20.5411 0.282108 1.6359 -1.000568
2010-06-10 08:12:58 51°16.008 2°53.421 20.5497 0.282108 1.635927 -1.000568
2010-06-10 08:13:03 51°16.024 2°53.41 20.5359 0.282108 1.635927 -1.000568
2010-06-10 08:13:08 51°16.04 2°53.399 20.5292 0.282003 1.635261 -1.000568
2010-06-10 08:13:13 51°16.056 2°53.388 20.5309 0.282108 1.6359 -1.035392
2010-06-10 08:13:17 51°16.069 2°53.379 20.5421 0.282108 1.6359 -1.000568
2010-06-10 08:13:23 51°16.088 2°53.365 20.5547 0.282108 1.635927 -1.035392
2010-06-10 08:13:28 51°16.105 2°53.354 20.5276 0.282108 1.635927 -1.035392
2010-06-10 08:13:33 51°16.121 2°53.343 20.5609 0.282108 1.635927 -1.035392
2010-06-10 08:13:38 51°16.137 2°53.332 20.5302 0.282108 1.635927 -1.000568
2010-06-10 08:13:42 51°16.15 2°53.323 20.547 0.282108 1.635954 -1.000568
2010-06-10 08:13:48 51°16.169 2°53.31 20.5534 0.282108 1.635927 -1.000568
2010-06-10 08:13:53 51°16.185 2°53.299 20.532 0.282108 1.635954 -1.000568
2010-06-10 08:13:57 51°16.198 2°53.29 20.5566 0.282108 1.635981 -1.000568
2010-06-10 08:14:02 51°16.214 2°53.28 20.5599 0.282108 1.635981 -1.000568
2010-06-10 08:14:08 51°16.234 2°53.267 20.5538 0.282108 1.635954 -1.000568
2010-06-10 08:14:13 51°16.25 2°53.255 20.5478 0.282108 1.635981 -1.000568
2010-06-10 08:14:18 51°16.266 2°53.244 20.5497 0.282108 1.635981 -1.000568
2010-06-10 08:14:23 51°16.282 2°53.233 20.5534 0.282108 1.636007 -1.000568
2010-06-10 08:14:28 51°16.298 2°53.222 20.5587 0.282108 1.635981 -0.965744
2010-06-10 08:14:33 51°16.314 2°53.211 20.5643 0.282108 1.635981 -0.965744
2010-06-10 08:14:38 51°16.33 2°53.2 20.5382 0.282108 1.636007 -1.000568
2010-06-10 08:14:42 51°16.343 2°53.191 20.5562 0.282108 1.636034 -1.000568
2010-06-10 08:14:48 51°16.362 2°53.178 20.5584 0.282108 1.635981 -1.035392
2010-06-10 08:14:52 51°16.375 2°53.169 20.5513 0.282108 1.636034 -1.000568
2010-06-10 08:14:58 51°16.395 2°53.156 20.5672 0.282108 1.635981 -1.000568
2010-06-10 08:15:02 51°16.407 2°53.147 20.5662 0.282108 1.635981 -1.000568
2010-06-10 08:15:08 51°16.427 2°53.134 20.5516 0.282108 1.636034 -1.035392
2010-06-10 08:15:12 51°16.44 2°53.125 20.5508 0.282108 1.636007 -1.000568
2010-06-10 08:15:17 51°16.456 2°53.114 20.5607 0.282108 1.636034 -0.965744
2010-06-10 08:15:23 51°16.475 2°53.1 20.5523 0.282108 1.636007 -1.035392
2010-06-10 08:15:28 51°16.491 2°53.089 20.5703 0.282108 1.636007 -1.035392
2010-06-10 08:15:33 51°16.507 2°53.078 20.5486 0.282108 1.636007 -1.035392
2010-06-10 08:15:38 51°16.523 2°53.067 20.5607 0.282108 1.636061 -1.035392
2010-06-10 08:15:42 51°16.536 2°53.058 20.5555 0.282108 1.636088 -0.965744
2010-06-10 08:15:48 51°16.555 2°53.045 20.5563 0.282108 1.636169 -1.000568
2010-06-10 08:15:53 51°16.571 2°53.034 20.5727 0.282108 1.636115 -1.000568
2010-06-10 08:15:58 51°16.587 2°53.023 20.5737 0.282108 1.636142 -1.000568
2010-06-10 08:16:02 51°16.6 2°53.014 20.5654 0.282108 1.636142 -1.000568
2010-06-10 08:16:08 51°16.619 2°53.001 20.544 0.282108 1.636142 -1.000568
2010-06-10 08:16:13 51°16.635 2°52.99 20.5616 0.282108 1.636142 -1.000568
2010-06-10 08:16:17 51°16.648 2°52.982 20.5591 0.282108 1.636115 -1.000568
2010-06-10 08:16:22 51°16.664 2°52.97 20.5577 0.282108 1.636115 -1.000568
2010-06-10 08:16:28 51°16.683 2°52.957 20.5764 0.282108 1.636142 -0.965744
2010-06-10 08:16:33 51°16.699 2°52.946 20.5725 0.282108 1.636142 -0.965744
2010-06-10 08:16:38 51°16.715 2°52.934 20.5703 0.282108 1.636088 -1.000568
2010-06-10 08:16:43 51°16.731 2°52.923 20.5486 0.282108 1.636142 -1.000568
2010-06-10 08:16:48 51°16.747 2°52.912 20.5694 0.282108 1.636169 -0.965744
2010-06-10 08:16:52 51°16.76 2°52.903 20.5741 0.282108 1.636196 -1.000568
2010-06-10 08:16:58 51°16.779 2°52.89 20.5817 0.282108 1.636196 -1.000568
2010-06-10 08:17:02 51°16.791 2°52.881 20.5781 0.282108 1.636196 -1.000568
2010-06-10 08:17:08 51°16.81 2°52.868 20.5504 0.282108 1.636169 -1.000568
2010-06-10 08:17:12 51°16.823 2°52.859 20.5678 0.282108 1.636196 -1.000568
2010-06-10 08:17:18 51°16.842 2°52.846 20.5839 0.282212 1.636835 -1.000568
2010-06-10 08:17:22 51°16.854 2°52.837 20.5419 0.282108 1.636196 -1.000568
2010-06-10 08:17:28 51°16.873 2°52.824 20.5668 0.282108 1.636196 -1.035392
2010-06-10 08:17:33 51°16.889 2°52.813 20.5743 0.282108 1.636196 -1.035392
2010-06-10 08:17:37 51°16.902 2°52.804 20.58 0.282108 1.636222 -1.035392
2010-06-10 08:17:43 51°16.921 2°52.791 20.5659 0.282212 1.636835 -1.000568
2010-06-10 08:17:48 51°16.937 2°52.781 20.5747 0.282108 1.636249 -1.035392
2010-06-10 08:17:53 51°16.953 2°52.769 20.5684 0.282108 1.636222 -1.000568
2010-06-10 08:17:58 51°16.968 2°52.758 20.5864 0.282108 1.636249 -1.000568
2010-06-10 08:18:02 51°16.981 2°52.75 20.5712 0.282108 1.636249 -1.000568
2010-06-10 08:18:08 51°17 2°52.736 20.5698 0.282108 1.636249 -1.000568
2010-06-10 08:18:13 51°17.016 2°52.725 20.5539 0.282108 1.636222 -1.035392
2010-06-10 08:18:17 51°17.029 2°52.716 20.5742 0.282108 1.636276 -1.000568
2010-06-10 08:18:22 51°17.045 2°52.705 20.5733 0.282212 1.636915 -1.000568
2010-06-10 08:18:28 51°17.064 2°52.691 20.5751 0.282108 1.63633 -1.000568
2010-06-10 08:18:33 51°17.08 2°52.68 20.5627 0.282108 1.63633 -1.000568
2010-06-10 08:18:37 51°17.093 2°52.672 20.5605 0.282212 1.636915 -1.000568
2010-06-10 08:18:43 51°17.112 2°52.66 20.5773 0.282108 1.63633 -1.000568
2010-06-10 08:18:48 51°17.129 2°52.655 20.5628 0.282212 1.636861 -1.035392
2010-06-10 08:18:53 51°17.145 2°52.647 20.5901 0.282212 1.636888 -0.965744
2010-06-10 08:18:58 51°17.162 2°52.643 20.5678 0.282212 1.636888 -0.965744
2010-06-10 08:19:02 51°17.176 2°52.639 20.5852 0.282212 1.636888 -0.965744
2010-06-10 08:19:08 51°17.196 2°52.635 20.5808 0.282212 1.636942 -0.965744
2010-06-10 08:19:12 51°17.21 2°52.632 20.5956 0.282108 1.636357 -1.000568
2010-06-10 08:19:18 51°17.231 2°52.63 20.5596 0.282212 1.636996 -1.000568
2010-06-10 08:19:22 51°17.244 2°52.628 20.5565 0.282212 1.636969 -0.965744
2010-06-10 08:19:28 51°17.265 2°52.627 20.5499 0.282212 1.636996 -1.000568
2010-06-10 08:19:32 51°17.279 2°52.629 20.5529 0.282212 1.636996 -1.000568
2010-06-10 08:19:38 51°17.298 2°52.636 20.5718 0.282108 1.636303 -1.000568
2010-06-10 08:19:42 51°17.311 2°52.643 20.5885 0.282212 1.636942 -0.965744
2010-06-10 08:19:48 51°17.329 2°52.657 20.6034 0.282212 1.636996 -1.000568
2010-06-10 08:19:53 51°17.344 2°52.67 20.5708 0.282212 1.637104 -1.000568
2010-06-10 08:19:57 51°17.356 2°52.68 20.6037 0.282212 1.637184 -1.000568
2010-06-10 08:20:03 51°17.374 2°52.698 20.5962 0.282212 1.637184 -1.000568
2010-06-10 08:20:08 51°17.388 2°52.713 20.6072 0.282108 1.636572 -1.000568
2010-06-10 08:20:13 51°17.402 2°52.728 20.5773 0.282212 1.637131 -0.965744
2010-06-10 08:20:18 51°17.416 2°52.745 20.6047 0.282212 1.637157 -1.000568
2010-06-10 08:20:22 51°17.427 2°52.758 20.6017 0.282212 1.637104 -1.000568
2010-06-10 08:20:28 51°17.444 2°52.779 20.6154 0.282212 1.637104 -1.000568
2010-06-10 08:20:33 51°17.457 2°52.796 20.5971 0.282212 1.637104 -1.000568
2010-06-10 08:20:37 51°17.468 2°52.81 20.6129 0.282212 1.637211 -1.000568
2010-06-10 08:20:42 51°17.482 2°52.828 20.6055 0.282212 1.637211 -1.000568
2010-06-10 08:20:48 51°17.498 2°52.848 20.6173 0.282212 1.637292 -1.000568
2010-06-10 08:20:53 51°17.512 2°52.867 20.6191 0.282212 1.637265 -1.000568
2010-06-10 08:20:58 51°17.526 2°52.884 20.6114 0.282212 1.637292 -0.965744
2010-06-10 08:21:03 51°17.539 2°52.902 20.6109 0.282212 1.637292 -0.965744
2010-06-10 08:21:08 51°17.553 2°52.92 20.6238 0.282212 1.637265 -1.000568
2010-06-10 08:21:12 51°17.564 2°52.934 20.5812 0.282212 1.637238 -1.000568
2010-06-10 08:21:18 51°17.58 2°52.956 20.584 0.282212 1.637238 -1.000568
2010-06-10 08:21:22 51°17.59 2°52.971 20.6043 0.282212 1.637292 -1.000568
2010-06-10 08:21:28 51°17.604 2°52.997 20.5939 0.282212 1.637211 -1.000568
2010-06-10 08:21:32 51°17.613 2°53.013 20.6204 0.282212 1.637211 -1.000568
2010-06-10 08:21:38 51°17.625 2°53.041 20.5837 0.282212 1.637238 -1.000568
2010-06-10 08:21:42 51°17.634 2°53.059 20.6224 0.282212 1.637319 -0.965744
2010-06-10 08:21:48 51°17.645 2°53.088 20.6085 0.282212 1.637265 -1.000568
2010-06-10 08:21:52 51°17.652 2°53.107 20.6198 0.282212 1.637373 -1.000568
2010-06-10 08:21:57 51°17.661 2°53.132 20.6148 0.282212 1.637373 -1.035392
2010-06-10 08:22:03 51°17.672 2°53.161 20.6231 0.282212 1.637373 -1.035392
2010-06-10 08:22:08 51°17.68 2°53.186 20.6213 0.282212 1.637346 -1.000568
2010-06-10 08:22:13 51°17.688 2°53.211 20.6287 0.282212 1.637346 -1.000568
2010-06-10 08:22:18 51°17.696 2°53.237 20.6269 0.282212 1.637319 -1.000568
2010-06-10 08:22:23 51°17.704 2°53.262 20.6355 0.282212 1.6374 -0.965744
2010-06-10 08:22:28 51°17.712 2°53.287 20.6295 0.282212 1.6374 -1.035392
2010-06-10 08:22:33 51°17.72 2°53.312 20.6405 0.282212 1.6374 -1.035392
2010-06-10 08:22:37 51°17.726 2°53.332 20.6226 0.282212 1.637427 -1.000568
2010-06-10 08:22:42 51°17.735 2°53.357 20.6249 0.282212 1.63748 -1.000568
2010-06-10 08:22:48 51°17.744 2°53.387 20.6392 0.282212 1.63748 -1.000568
2010-06-10 08:22:53 51°17.753 2°53.413 20.623 0.282212 1.63748 -1.000568
2010-06-10 08:22:57 51°17.759 2°53.433 20.613 0.282212 1.637453 -0.965744
2010-06-10 08:23:02 51°17.767 2°53.458 20.6341 0.282212 1.637453 -0.965744
2010-06-10 08:23:07 51°17.775 2°53.483 20.6338 0.282212 1.637427 -0.965744
2010-06-10 08:23:13 51°17.785 2°53.513 20.6269 0.282212 1.637453 -1.000568
2010-06-10 08:23:18 51°17.793 2°53.539 20.6356 0.282212 1.637453 -1.035392
2010-06-10 08:23:22 51°17.8 2°53.559 20.6454 0.282212 1.637507 -0.965744
2010-06-10 08:23:28 51°17.809 2°53.589 20.6155 0.282212 1.637507 -1.000568
2010-06-10 08:23:33 51°17.818 2°53.614 20.642 0.282212 1.637507 -1.000568
2010-06-10 08:23:38 51°17.826 2°53.639 20.6294 0.282212 1.637507 -0.965744
2010-06-10 08:23:42 51°17.832 2°53.659 20.6324 0.282212 1.637507 -0.965744
2010-06-10 08:23:48 51°17.842 2°53.689 20.638 0.282212 1.637534 -0.965744
2010-06-10 08:23:52 51°17.849 2°53.709 20.6273 0.282212 1.637561 -0.965744
2010-06-10 08:23:58 51°17.859 2°53.739 20.645 0.282212 1.637534 -1.000568
2010-06-10 08:24:02 51°17.865 2°53.759 20.6367 0.282212 1.637534 -1.000568
2010-06-10 08:24:08 51°17.875 2°53.789 20.6454 0.282212 1.637534 -1.000568
2010-06-10 08:24:13 51°17.884 2°53.814 20.6466 0.282212 1.637534 -0.965744
2010-06-10 08:24:18 51°17.892 2°53.838 20.6409 0.282212 1.637507 -1.000568
2010-06-10 08:24:23 51°17.9 2°53.864 20.6468 0.282212 1.637588 -1.000568
2010-06-10 08:24:28 51°17.908 2°53.889 20.6492 0.282212 1.637561 -1.000568
2010-06-10 08:24:33 51°17.916 2°53.913 20.6443 0.282212 1.637561 -1.000568
2010-06-10 08:24:38 51°17.925 2°53.938 20.6493 0.282212 1.637588 -0.965744
2010-06-10 08:24:43 51°17.933 2°53.963 20.6503 0.282212 1.637615 -1.035392
2010-06-10 08:24:48 51°17.941 2°53.988 20.6403 0.282212 1.637615 -1.035392
2010-06-10 08:24:53 51°17.95 2°54.013 20.6531 0.282212 1.637615 -1.000568
2010-06-10 08:24:57 51°17.957 2°54.033 20.6447 0.282212 1.637588 -1.000568
2010-06-10 08:25:02 51°17.965 2°54.057 20.655 0.282212 1.637588 -1.000568
2010-06-10 08:25:08 51°17.975 2°54.087 20.6378 0.282212 1.637615 -1.035392
2010-06-10 08:25:13 51°17.983 2°54.112 20.6275 0.282212 1.637642 -1.035392
2010-06-10 08:25:17 51°17.99 2°54.131 20.6576 0.282212 1.637615 -1.000568
2010-06-10 08:25:23 51°18 2°54.161 20.6564 0.282212 1.637642 -1.000568
2010-06-10 08:25:28 51°18.009 2°54.185 20.6447 0.282212 1.637642 -1.035392
2010-06-10 08:25:33 51°18.017 2°54.21 20.6479 0.282212 1.637642 -1.035392
2010-06-10 08:25:38 51°18.026 2°54.235 20.6499 0.282212 1.637642 -1.000568
2010-06-10 08:25:42 51°18.033 2°54.254 20.6498 0.282212 1.637669 -1.000568
2010-06-10 08:25:48 51°18.043 2°54.284 20.6582 0.282212 1.637669 -1.035392
2010-06-10 08:25:53 51°18.051 2°54.309 20.6537 0.282212 1.637642 -1.000568
2010-06-10 08:25:58 51°18.06 2°54.334 20.6514 0.282212 1.637696 -1.000568
2010-06-10 08:26:02 51°18.066 2°54.353 20.6566 0.282212 1.637696 -1.000568
2010-06-10 08:26:08 51°18.077 2°54.383 20.6655 0.282212 1.637669 -0.965744
2010-06-10 08:26:12 51°18.083 2°54.403 20.652 0.282212 1.637642 -0.965744
2010-06-10 08:26:17 51°18.092 2°54.428 20.6548 0.282212 1.637696 -1.000568
2010-06-10 08:26:22 51°18.101 2°54.452 20.6609 0.282212 1.637669 -1.000568
2010-06-10 08:26:28 51°18.111 2°54.482 20.6475 0.282212 1.637669 -1.000568
2010-06-10 08:26:33 51°18.119 2°54.507 20.6569 0.282212 1.637669 -1.000568
2010-06-10 08:26:37 51°18.126 2°54.526 20.6555 0.282212 1.637696 -1.000568
2010-06-10 08:26:43 51°18.137 2°54.556 20.6565 0.282212 1.637696 -0.965744
2010-06-10 08:26:48 51°18.145 2°54.581 20.6584 0.282212 1.637696 -1.000568
2010-06-10 08:26:53 51°18.154 2°54.605 20.6582 0.282212 1.637696 -0.965744
2010-06-10 08:26:57 51°18.161 2°54.624 20.6528 0.282212 1.637723 -1.000568
2010-06-10 08:27:03 51°18.171 2°54.654 20.6685 0.282212 1.637723 -1.000568
2010-06-10 08:27:08 51°18.18 2°54.679 20.6613 0.282212 1.637696 -1.000568
2010-06-10 08:27:13 51°18.188 2°54.703 20.6514 0.282212 1.63775 -1.000568
2010-06-10 08:27:17 51°18.195 2°54.723 20.6576 0.282212 1.637696 -1.000568
2010-06-10 08:27:22 51°18.204 2°54.748 20.6632 0.282212 1.637696 -1.000568
2010-06-10 08:27:27 51°18.212 2°54.772 20.6661 0.282212 1.637723 -0.965744
2010-06-10 08:27:33 51°18.222 2°54.802 20.6509 0.282212 1.637723 -0.965744
2010-06-10 08:27:38 51°18.231 2°54.826 20.6635 0.282212 1.637777 -1.000568
2010-06-10 08:27:42 51°18.238 2°54.846 20.6684 0.282212 1.63775 -0.965744
2010-06-10 08:27:48 51°18.248 2°54.876 20.6628 0.282212 1.63775 -1.000568
2010-06-10 08:27:53 51°18.257 2°54.9 20.6795 0.282212 1.637723 -1.035392
2010-06-10 08:27:58 51°18.265 2°54.925 20.6658 0.282212 1.63775 -1.035392
2010-06-10 08:28:02 51°18.272 2°54.944 20.6874 0.282212 1.63775 -1.035392
2010-06-10 08:28:08 51°18.283 2°54.974 20.655 0.282212 1.637777 -1.000568
2010-06-10 08:28:12 51°18.29 2°54.993 20.675 0.282212 1.63783 -0.965744
2010-06-10 08:28:18 51°18.301 2°55.021 20.6746 0.282212 1.637803 -1.000568
2010-06-10 08:28:22 51°18.309 2°55.04 20.6586 0.282212 1.637777 -1.035392
2010-06-10 08:28:28 51°18.321 2°55.068 20.672 0.282212 1.637857 -1.000568
2010-06-10 08:28:32 51°18.329 2°55.087 20.6823 0.282212 1.637857 -1.000568
2010-06-10 08:28:37 51°18.339 2°55.11 20.6493 0.282212 1.637777 -1.000568
2010-06-10 08:28:43 51°18.351 2°55.137 20.6674 0.282212 1.63783 -1.000568
2010-06-10 08:28:48 51°18.361 2°55.16 20.6653 0.282212 1.637777 -1.000568
2010-06-10 08:28:53 51°18.371 2°55.183 20.6752 0.282212 1.63783 -1.000568
2010-06-10 08:28:58 51°18.382 2°55.205 20.6692 0.282212 1.63783 -1.035392
2010-06-10 08:29:03 51°18.392 2°55.228 20.6555 0.282212 1.63783 -1.035392
2010-06-10 08:29:08 51°18.402 2°55.251 20.6742 0.282212 1.637857 -1.000568
2010-06-10 08:29:13 51°18.412 2°55.275 20.6718 0.282212 1.63783 -0.965744
2010-06-10 08:29:17 51°18.42 2°55.293 20.6653 0.282212 1.63783 -1.000568
2010-06-10 08:29:22 51°18.43 2°55.316 20.6819 0.282212 1.637803 -1.000568
2010-06-10 08:29:28 51°18.443 2°55.344 20.6691 0.282212 1.637857 -1.000568
2010-06-10 08:29:33 51°18.453 2°55.367 20.6821 0.282212 1.637857 -1.000568
2010-06-10 08:29:37 51°18.461 2°55.386 20.6816 0.282212 1.63783 -1.000568
2010-06-10 08:29:42 51°18.471 2°55.409 20.6713 0.282212 1.637857 -0.965744
2010-06-10 08:29:48 51°18.483 2°55.436 20.6744 0.282212 1.637911 -1.000568
2010-06-10 08:29:53 51°18.493 2°55.459 20.6611 0.282212 1.637884 -1.000568
2010-06-10 08:29:58 51°18.503 2°55.482 20.6696 0.282212 1.637911 -1.000568
2010-06-10 08:30:02 51°18.511 2°55.501 20.6835 0.282212 1.637911 -1.000568
2010-06-10 08:30:08 51°18.524 2°55.529 20.6764 0.282108 1.637245 -1.000568
2010-06-10 08:30:13 51°18.534 2°55.552 20.6821 0.282212 1.637911 -1.000568
2010-06-10 08:30:18 51°18.544 2°55.575 20.6887 0.282212 1.637938 -1.000568
2010-06-10 08:30:22 51°18.552 2°55.594 20.6844 0.282212 1.637911 -1.000568
2010-06-10 08:30:28 51°18.564 2°55.621 20.6688 0.282108 1.637326 -1.000568
2010-06-10 08:30:32 51°18.572 2°55.64 20.691 0.282108 1.637326 -1.000568
2010-06-10 08:30:38 51°18.585 2°55.667 20.6756 0.282212 1.637938 -1.000568
2010-06-10 08:30:42 51°18.593 2°55.686 20.6872 0.282212 1.637965 -1.000568
2010-06-10 08:30:48 51°18.605 2°55.713 20.6892 0.282108 1.637326 -1.000568
2010-06-10 08:30:53 51°18.615 2°55.737 20.691 0.282212 1.637938 -1.035392
2010-06-10 08:30:58 51°18.625 2°55.76 20.6825 0.282108 1.637299 -1.000568
2010-06-10 08:31:03 51°18.635 2°55.783 20.6974 0.282108 1.637299 -1.000568
2010-06-10 08:31:08 51°18.645 2°55.807 20.6901 0.282212 1.637911 -1.000568
2010-06-10 08:31:13 51°18.655 2°55.83 20.6928 0.282212 1.637938 -1.000568
2010-06-10 08:31:17 51°18.663 2°55.849 20.6937 0.282108 1.637326 -1.000568
2010-06-10 08:31:23 51°18.675 2°55.877 20.6944 0.282108 1.637353 -1.000568
2010-06-10 08:31:28 51°18.685 2°55.9 20.7 0.282108 1.63738 -1.000568
2010-06-10 08:31:33 51°18.695 2°55.923 20.6955 0.282108 1.63738 -1.000568
2010-06-10 08:31:37 51°18.704 2°55.942 20.6996 0.282212 1.637992 -1.000568
2010-06-10 08:31:42 51°18.714 2°55.965 20.6851 0.282108 1.63738 -1.000568
2010-06-10 08:31:48 51°18.726 2°55.993 20.6891 0.282108 1.637353 -1.000568
2010-06-10 08:31:53 51°18.736 2°56.016 20.6956 0.282108 1.637406 -1.000568
2010-06-10 08:31:58 51°18.746 2°56.039 20.6935 0.282108 1.637326 -1.000568
2010-06-10 08:32:02 51°18.754 2°56.058 20.6935 0.282108 1.637326 -1.000568
2010-06-10 08:32:08 51°18.766 2°56.085 20.6979 0.282108 1.63738 -1.000568
2010-06-10 08:32:13 51°18.776 2°56.109 20.6912 0.282108 1.63738 -0.965744
2010-06-10 08:32:18 51°18.786 2°56.132 20.7037 0.282108 1.637406 -1.035392
2010-06-10 08:32:22 51°18.794 2°56.151 20.7082 0.282212 1.638019 -1.000568
2010-06-10 08:32:28 51°18.806 2°56.178 20.705 0.282108 1.63738 -1.000568
2010-06-10 08:32:32 51°18.814 2°56.197 20.7054 0.282108 1.63738 -1.000568
2010-06-10 08:32:38 51°18.826 2°56.224 20.7088 0.282108 1.63738 -0.965744
2010-06-10 08:32:42 51°18.834 2°56.243 20.6887 0.282108 1.63738 -1.035392
2010-06-10 08:32:48 51°18.846 2°56.27 20.709 0.282108 1.637406 -1.000568
2010-06-10 08:32:52 51°18.854 2°56.289 20.6998 0.282108 1.637406 -1.035392
2010-06-10 08:32:58 51°18.866 2°56.316 20.6991 0.282108 1.63738 -1.035392
2010-06-10 08:33:02 51°18.874 2°56.335 20.7111 0.282108 1.63738 -1.035392
2010-06-10 08:33:08 51°18.886 2°56.362 20.6889 0.282212 1.6381 -1.000568
2010-06-10 08:33:13 51°18.897 2°56.385 20.692 0.282108 1.637433 -1.000568
2010-06-10 08:33:17 51°18.905 2°56.404 20.7113 0.282108 1.637406 -0.965744
2010-06-10 08:33:23 51°18.917 2°56.432 20.7147 0.282108 1.637433 -1.000568
2010-06-10 08:33:28 51°18.927 2°56.455 20.7108 0.282108 1.637433 -1.000568
2010-06-10 08:33:33 51°18.937 2°56.478 20.7143 0.282108 1.637433 -1.000568
2010-06-10 08:33:37 51°18.945 2°56.497 20.7057 0.282108 1.637433 -1.000568
2010-06-10 08:33:43 51°18.957 2°56.525 20.7169 0.282108 1.63746 -1.000568
2010-06-10 08:33:48 51°18.966 2°56.549 20.7139 0.282108 1.637433 -1.000568
2010-06-10 08:33:53 51°18.976 2°56.572 20.7236 0.282108 1.637487 -0.965744
2010-06-10 08:33:57 51°18.985 2°56.59 20.7134 0.282108 1.637433 -1.000568
2010-06-10 08:34:02 51°18.995 2°56.614 20.7125 0.282108 1.637433 -1.000568
2010-06-10 08:34:08 51°19.007 2°56.642 20.7156 0.282108 1.637487 -1.000568
2010-06-10 08:34:13 51°19.017 2°56.665 20.7196 0.282108 1.637433 -1.000568
2010-06-10 08:34:18 51°19.027 2°56.688 20.7112 0.282108 1.637487 -1.035392
2010-06-10 08:34:22 51°19.035 2°56.706 20.7253 0.282108 1.637487 -0.965744
2010-06-10 08:34:28 51°19.047 2°56.734 20.7108 0.282108 1.637487 -1.000568
2010-06-10 08:34:33 51°19.057 2°56.757 20.7246 0.282108 1.637487 -1.000568
2010-06-10 08:34:38 51°19.068 2°56.78 20.7155 0.282108 1.637514 -1.000568
2010-06-10 08:34:42 51°19.076 2°56.799 20.7219 0.282108 1.637514 -1.000568
2010-06-10 08:34:48 51°19.088 2°56.826 20.7221 0.282108 1.637514 -1.000568
2010-06-10 08:34:52 51°19.096 2°56.845 20.7199 0.282108 1.637487 -1.000568
2010-06-10 08:34:58 51°19.108 2°56.873 20.7237 0.282108 1.637487 -0.965744
2010-06-10 08:35:02 51°19.116 2°56.892 20.7222 0.282108 1.637487 -0.965744
2010-06-10 08:35:08 51°19.129 2°56.92 20.7245 0.282108 1.637541 -1.000568
2010-06-10 08:35:12 51°19.137 2°56.938 20.726 0.282108 1.637514 -1.000568
2010-06-10 08:35:18 51°19.149 2°56.965 20.718 0.282108 1.637514 -1.000568
2010-06-10 08:35:23 51°19.159 2°56.988 20.7173 0.282108 1.637541 -1.000568
2010-06-10 08:35:28 51°19.169 2°57.012 20.728 0.282108 1.637541 -1.000568
2010-06-10 08:35:33 51°19.179 2°57.035 20.7253 0.282108 1.637541 -1.000568
2010-06-10 08:35:37 51°19.187 2°57.053 20.7282 0.282108 1.637514 -1.000568
2010-06-10 08:35:43 51°19.2 2°57.081 20.7265 0.282108 1.637568 -1.000568
2010-06-10 08:35:48 51°19.209 2°57.104 20.7355 0.282108 1.637568 -1.000568
2010-06-10 08:35:52 51°19.217 2°57.123 20.7296 0.282108 1.637541 -0.965744
2010-06-10 08:35:57 51°19.227 2°57.146 20.736 0.282108 1.637541 -1.000568
2010-06-10 08:36:03 51°19.24 2°57.174 20.7163 0.282108 1.637541 -1.000568
2010-06-10 08:36:08 51°19.25 2°57.198 20.7367 0.282108 1.637568 -1.035392
2010-06-10 08:36:13 51°19.26 2°57.221 20.7363 0.282108 1.637541 -1.000568
2010-06-10 08:36:18 51°19.27 2°57.244 20.7303 0.282108 1.637568 -0.965744
2010-06-10 08:36:22 51°19.278 2°57.262 20.7191 0.282108 1.637568 -1.035392
2010-06-10 08:36:28 51°19.29 2°57.29 20.7323 0.282108 1.637568 -1.000568
2010-06-10 08:36:33 51°19.3 2°57.314 20.7201 0.282108 1.637568 -1.000568
2010-06-10 08:36:38 51°19.31 2°57.336 20.7323 0.282108 1.637568 -0.965744
2010-06-10 08:36:42 51°19.318 2°57.355 20.7411 0.282108 1.637568 -1.000568
2010-06-10 08:36:48 51°19.33 2°57.382 20.7362 0.282108 1.637568 -1.000568
2010-06-10 08:36:53 51°19.341 2°57.405 20.7226 0.282108 1.637568 -1.000568
2010-06-10 08:36:57 51°19.348 2°57.424 20.7395 0.282108 1.637568 -1.000568
2010-06-10 08:37:02 51°19.359 2°57.447 20.7271 0.282108 1.637568 -1.000568
2010-06-10 08:37:08 51°19.371 2°57.475 20.7324 0.282108 1.637568 -1.000568
2010-06-10 08:37:13 51°19.381 2°57.498 20.7445 0.282108 1.637595 -0.965744
2010-06-10 08:37:18 51°19.391 2°57.522 20.7305 0.282108 1.637541 -0.965744
2010-06-10 08:37:23 51°19.402 2°57.545 20.7494 0.282108 1.637595 -1.000568
2010-06-10 08:37:28 51°19.411 2°57.569 20.7258 0.282108 1.637541 -1.035392
2010-06-10 08:37:32 51°19.42 2°57.587 20.7455 0.282108 1.637541 -1.035392
2010-06-10 08:37:38 51°19.432 2°57.615 20.7354 0.282108 1.637595 -1.035392
2010-06-10 08:37:42 51°19.441 2°57.633 20.7423 0.282108 1.637622 -1.000568
2010-06-10 08:37:48 51°19.453 2°57.662 20.7436 0.282108 1.637568 -1.000568
2010-06-10 08:37:52 51°19.461 2°57.68 20.7446 0.282108 1.637622 -1.000568
2010-06-10 08:37:57 51°19.471 2°57.704 20.7363 0.282108 1.637622 -1.000568
2010-06-10 08:38:03 51°19.484 2°57.732 20.7546 0.282108 1.637622 -1.000568
2010-06-10 08:38:08 51°19.494 2°57.756 20.7375 0.282108 1.637568 -1.000568
2010-06-10 08:38:13 51°19.504 2°57.779 20.7292 0.282108 1.637568 -0.965744
2010-06-10 08:38:18 51°19.514 2°57.803 20.7368 0.282108 1.637541 -0.965744
2010-06-10 08:38:22 51°19.522 2°57.822 20.7514 0.282108 1.637595 -0.965744
2010-06-10 08:38:28 51°19.533 2°57.851 20.7351 0.282108 1.637568 -0.965744
2010-06-10 08:38:33 51°19.543 2°57.876 20.7415 0.282108 1.637568 -0.965744
2010-06-10 08:38:38 51°19.552 2°57.901 20.7386 0.282108 1.637568 -1.000568
2010-06-10 08:38:42 51°19.559 2°57.92 20.7454 0.282108 1.637595 -1.000568
2010-06-10 08:38:48 51°19.57 2°57.951 20.744 0.282108 1.637568 -1.000568
2010-06-10 08:38:53 51°19.579 2°57.975 20.7513 0.282108 1.637595 -1.000568
2010-06-10 08:38:57 51°19.586 2°57.995 20.7515 0.282108 1.637568 -1.000568
2010-06-10 08:39:03 51°19.597 2°58.025 20.7502 0.282108 1.637568 -1.000568
2010-06-10 08:39:08 51°19.605 2°58.05 20.7543 0.282108 1.637622 -1.000568
2010-06-10 08:39:13 51°19.614 2°58.076 20.7516 0.282004 1.636955 -1.000568
2010-06-10 08:39:18 51°19.623 2°58.101 20.7634 0.282108 1.637622 -1.000568
2010-06-10 08:39:23 51°19.632 2°58.126 20.7468 0.282108 1.637595 -1.000568
2010-06-10 08:39:28 51°19.641 2°58.151 20.7608 0.282108 1.637622 -1.000568
2010-06-10 08:39:33 51°19.649 2°58.176 20.7588 0.282108 1.637622 -1.000568
2010-06-10 08:39:38 51°19.658 2°58.202 20.7597 0.282108 1.637622 -1.000568
2010-06-10 08:39:43 51°19.667 2°58.227 20.7618 0.282004 1.636982 -1.000568
2010-06-10 08:39:48 51°19.675 2°58.252 20.7653 0.282108 1.637622 -1.000568
2010-06-10 08:39:52 51°19.682 2°58.272 20.7527 0.282004 1.636955 -1.000568
2010-06-10 08:39:57 51°19.691 2°58.297 20.7543 0.282108 1.637622 -0.965744
2010-06-10 08:40:02 51°19.7 2°58.322 20.764 0.282108 1.637622 -0.965744
2010-06-10 08:40:08 51°19.711 2°58.353 20.75 0.282004 1.636955 -0.965744
2010-06-10 08:40:13 51°19.72 2°58.378 20.7525 0.282108 1.637595 -0.965744
2010-06-10 08:40:17 51°19.727 2°58.398 20.7641 0.282004 1.636955 -0.965744
2010-06-10 08:40:22 51°19.736 2°58.423 20.7657 0.282108 1.637595 -1.035392
2010-06-10 08:40:28 51°19.747 2°58.453 20.768 0.282004 1.636982 -1.000568
2010-06-10 08:40:33 51°19.756 2°58.478 20.77 0.282004 1.636982 -1.000568
2010-06-10 08:40:38 51°19.764 2°58.504 20.7594 0.282004 1.636928 -1.000568
2010-06-10 08:40:42 51°19.772 2°58.524 20.7607 0.282004 1.636982 -1.035392
2010-06-10 08:40:48 51°19.782 2°58.554 20.77 0.282004 1.636955 -1.000568
2010-06-10 08:40:53 51°19.791 2°58.58 20.7691 0.282004 1.636928 -1.035392
2010-06-10 08:40:58 51°19.8 2°58.604 20.7631 0.282004 1.636928 -1.000568
2010-06-10 08:41:02 51°19.808 2°58.625 20.7711 0.282004 1.636928 -1.000568
2010-06-10 08:41:08 51°19.818 2°58.654 20.7728 0.282004 1.636955 -1.000568
2010-06-10 08:41:13 51°19.827 2°58.68 20.7564 0.282004 1.636928 -0.965744
2010-06-10 08:41:17 51°19.835 2°58.7 20.7739 0.282004 1.636955 -1.000568
2010-06-10 08:41:22 51°19.844 2°58.725 20.7826 0.282004 1.636928 -1.000568
2010-06-10 08:41:28 51°19.854 2°58.755 20.7676 0.282004 1.636982 -1.000568
2010-06-10 08:41:33 51°19.863 2°58.78 20.7798 0.282004 1.636982 -1.000568
2010-06-10 08:41:38 51°19.872 2°58.805 20.7676 0.282004 1.636902 -1.000568
2010-06-10 08:41:43 51°19.882 2°58.83 20.7853 0.282004 1.636982 -1.000568
2010-06-10 08:41:48 51°19.89 2°58.855 20.7646 0.282004 1.636982 -1.000568
2010-06-10 08:41:52 51°19.898 2°58.875 20.7807 0.282004 1.636955 -1.035392
2010-06-10 08:41:58 51°19.909 2°58.905 20.7733 0.282004 1.636955 -1.000568
2010-06-10 08:42:02 51°19.916 2°58.925 20.784 0.282004 1.636955 -1.000568
2010-06-10 08:42:08 51°19.927 2°58.956 20.7697 0.282004 1.636928 -0.965744
2010-06-10 08:42:12 51°19.934 2°58.976 20.7846 0.282004 1.636982 -1.000568
2010-06-10 08:42:17 51°19.943 2°59.001 20.7849 0.282004 1.636928 -0.965744
2010-06-10 08:42:23 51°19.954 2°59.031 20.7829 0.282004 1.636955 -1.035392
2010-06-10 08:42:28 51°19.963 2°59.057 20.785 0.282004 1.636982 -0.965744
2010-06-10 08:42:33 51°19.972 2°59.082 20.7798 0.282004 1.636982 -0.965744
2010-06-10 08:42:37 51°19.979 2°59.102 20.7798 0.282004 1.636955 -1.000568
2010-06-10 08:42:42 51°19.988 2°59.128 20.7738 0.282004 1.636955 -1.000568
2010-06-10 08:42:48 51°19.998 2°59.158 20.7882 0.282004 1.636982 -1.000568
2010-06-10 08:42:53 51°20.005 2°59.185 20.7601 0.282004 1.636902 -1.000568
2010-06-10 08:42:58 51°20.012 2°59.212 20.7958 0.282004 1.636902 -1.035392
2010-06-10 08:43:02 51°20.018 2°59.233 20.7697 0.282004 1.636902 -1.035392
2010-06-10 08:43:08 51°20.026 2°59.266 20.7935 0.282004 1.636982 -1.000568
2010-06-10 08:43:13 51°20.032 2°59.293 20.7732 0.282004 1.636955 -1.000568
2010-06-10 08:43:17 51°20.037 2°59.315 20.7921 0.282004 1.637009 -1.000568
2010-06-10 08:43:22 51°20.043 2°59.342 20.7861 0.282004 1.636928 -1.000568
2010-06-10 08:43:28 51°20.051 2°59.375 20.7974 0.282004 1.636982 -1.000568
2010-06-10 08:43:33 51°20.056 2°59.403 20.7906 0.282004 1.636982 -1.000568
2010-06-10 08:43:38 51°20.063 2°59.431 20.7974 0.282004 1.636982 -0.965744
2010-06-10 08:43:43 51°20.068 2°59.458 20.7965 0.282004 1.636928 -1.000568
2010-06-10 08:43:48 51°20.074 2°59.486 20.7983 0.282004 1.636955 -1.000568
2010-06-10 08:43:53 51°20.08 2°59.514 20.7916 0.282004 1.636982 -1.000568
2010-06-10 08:43:58 51°20.086 2°59.541 20.8016 0.282004 1.637009 -1.000568
2010-06-10 08:44:02 51°20.09 2°59.564 20.8041 0.282004 1.637009 -1.000568
2010-06-10 08:44:08 51°20.097 2°59.597 20.7933 0.282004 1.637063 -1.000568
2010-06-10 08:44:12 51°20.102 2°59.619 20.7956 0.282004 1.637009 -1.000568
2010-06-10 08:44:18 51°20.109 2°59.653 20.7933 0.282004 1.637009 -1.000568
2010-06-10 08:44:22 51°20.114 2°59.675 20.8087 0.282004 1.637009 -1.000568
2010-06-10 08:44:28 51°20.121 2°59.708 20.7909 0.282004 1.636955 -1.000568
2010-06-10 08:44:33 51°20.127 2°59.736 20.8048 0.282004 1.636955 -1.000568
2010-06-10 08:44:37 51°20.132 2°59.758 20.8005 0.282004 1.636982 -1.000568
2010-06-10 08:44:43 51°20.139 2°59.791 20.8043 0.282004 1.636982 -1.000568
2010-06-10 08:44:48 51°20.144 2°59.819 20.8075 0.282004 1.637009 -1.035392
2010-06-10 08:44:53 51°20.151 2°59.846 20.7886 0.282004 1.636982 -1.000568
2010-06-10 08:44:58 51°20.156 2°59.874 20.8133 0.282004 1.637009 -1.035392
2010-06-10 08:45:02 51°20.162 2°59.896 20.8055 0.282004 1.637009 -1.035392
2010-06-10 08:45:08 51°20.169 2°59.929 20.8084 0.282004 1.637009 -1.000568
2010-06-10 08:45:13 51°20.175 2°59.957 20.7976 0.282004 1.636982 -1.000568
2010-06-10 08:45:18 51°20.181 2°59.984 20.8015 0.282004 1.636955 -1.000568
2010-06-10 08:45:22 51°20.186 3°0.006 20.807 0.282004 1.636982 -1.000568
2010-06-10 08:45:28 51°20.193 3°0.039 20.8186 0.282004 1.636982 -0.965744
2010-06-10 08:45:33 51°20.199 3°0.067 20.8045 0.282004 1.636982 -0.965744
2010-06-10 08:45:37 51°20.204 3°0.089 20.809 0.282004 1.637009 -0.965744
2010-06-10 08:45:42 51°20.21 3°0.117 20.8031 0.282004 1.636982 -1.000568
2010-06-10 08:45:48 51°20.217 3°0.15 20.8077 0.282004 1.636982 -1.000568
2010-06-10 08:45:53 51°20.223 3°0.178 20.8024 0.282004 1.637036 -1.000568
2010-06-10 08:45:58 51°20.229 3°0.205 20.8217 0.282004 1.637009 -1.000568
2010-06-10 08:46:03 51°20.235 3°0.233 20.8147 0.282004 1.637009 -1.000568
2010-06-10 08:46:08 51°20.241 3°0.261 20.8047 0.282004 1.637063 -1.000568
2010-06-10 08:46:13 51°20.247 3°0.288 20.817 0.282004 1.637036 -1.035392
2010-06-10 08:46:18 51°20.253 3°0.316 20.802 0.282004 1.637009 -1.000568
2010-06-10 08:46:22 51°20.258 3°0.338 20.8276 0.282004 1.637009 -0.965744
2010-06-10 08:46:28 51°20.265 3°0.371 20.7925 0.282004 1.637036 -1.035392
2010-06-10 08:46:32 51°20.27 3°0.393 20.8172 0.282004 1.637036 -1.035392
2010-06-10 08:46:38 51°20.277 3°0.426 20.8185 0.282004 1.637009 -0.965744
2010-06-10 08:46:42 51°20.282 3°0.448 20.8031 0.282004 1.637063 -1.000568
2010-06-10 08:46:48 51°20.29 3°0.481 20.8222 0.281899 1.636424 -1.000568
2010-06-10 08:46:53 51°20.296 3°0.509 20.8034 0.282004 1.637036 -1.000568
2010-06-10 08:46:57 51°20.301 3°0.531 20.8228 0.282004 1.63709 -1.000568
2010-06-10 08:47:03 51°20.308 3°0.565 20.806 0.282004 1.63709 -1.000568
2010-06-10 08:47:08 51°20.315 3°0.592 20.8261 0.282004 1.637009 -1.000568
2010-06-10 08:47:13 51°20.32 3°0.62 20.8162 0.282004 1.636982 -0.965744
2010-06-10 08:47:18 51°20.327 3°0.648 20.823 0.281899 1.636397 -1.000568
2010-06-10 08:47:22 51°20.332 3°0.67 20.8147 0.282004 1.637009 -1.035392
2010-06-10 08:47:28 51°20.339 3°0.704 20.8129 0.282004 1.637036 -1.000568
2010-06-10 08:47:33 51°20.345 3°0.732 20.8359 0.282004 1.637036 -1.000568
2010-06-10 08:47:37 51°20.35 3°0.754 20.8272 0.282004 1.637036 -1.000568
2010-06-10 08:47:42 51°20.356 3°0.781 20.8236 0.281899 1.636424 -0.965744
2010-06-10 08:47:48 51°20.364 3°0.815 20.8283 0.282004 1.637063 -0.965744
2010-06-10 08:47:53 51°20.37 3°0.842 20.8196 0.282004 1.637036 -0.965744
2010-06-10 08:47:58 51°20.377 3°0.87 20.8093 0.281899 1.63645 -0.965744
2010-06-10 08:48:03 51°20.383 3°0.898 20.8266 0.281899 1.63645 -0.965744
2010-06-10 08:48:08 51°20.389 3°0.925 20.8225 0.281899 1.636397 -1.000568
2010-06-10 08:48:13 51°20.396 3°0.953 20.8307 0.281899 1.63637 -0.965744
2010-06-10 08:48:18 51°20.402 3°0.981 20.8187 0.281899 1.636424 -1.000568
2010-06-10 08:48:22 51°20.407 3°1.003 20.8354 0.281899 1.636343 -1.000568
2010-06-10 08:48:28 51°20.415 3°1.037 20.8384 0.281899 1.63645 -1.000568
2010-06-10 08:48:32 51°20.42 3°1.059 20.8257 0.281899 1.63645 -1.000568
2010-06-10 08:48:38 51°20.427 3°1.092 20.8357 0.281899 1.636424 -1.000568
2010-06-10 08:48:42 51°20.432 3°1.114 20.8176 0.281899 1.636397 -1.000568
2010-06-10 08:48:48 51°20.439 3°1.148 20.8347 0.281899 1.636424 -1.000568
2010-06-10 08:48:52 51°20.444 3°1.17 20.8193 0.281899 1.636424 -0.965744
2010-06-10 08:48:57 51°20.451 3°1.198 20.8361 0.281899 1.636424 -1.000568
2010-06-10 08:49:03 51°20.458 3°1.231 20.8181 0.281899 1.636424 -1.000568
2010-06-10 08:49:08 51°20.465 3°1.259 20.8333 0.281899 1.636397 -1.000568
2010-06-10 08:49:13 51°20.471 3°1.287 20.8277 0.281899 1.636477 -0.965744
2010-06-10 08:49:17 51°20.476 3°1.309 20.8338 0.281899 1.63645 -1.035392
2010-06-10 08:49:23 51°20.484 3°1.342 20.8421 0.281899 1.636477 -0.965744
2010-06-10 08:49:28 51°20.49 3°1.37 20.8225 0.281899 1.636424 -0.965744
2010-06-10 08:49:33 51°20.497 3°1.397 20.8393 0.281899 1.636424 -0.965744
2010-06-10 08:49:37 51°20.502 3°1.419 20.8395 0.281899 1.636424 -1.000568
2010-06-10 08:49:43 51°20.509 3°1.453 20.8396 0.281899 1.63645 -1.000568
2010-06-10 08:49:48 51°20.516 3°1.481 20.8508 0.281899 1.636477 -1.000568
2010-06-10 08:49:53 51°20.522 3°1.508 20.8346 0.281899 1.63645 -1.000568
2010-06-10 08:49:58 51°20.528 3°1.536 20.8441 0.281899 1.63645 -1.000568
2010-06-10 08:50:03 51°20.535 3°1.564 20.8296 0.281899 1.63645 -1.000568
2010-06-10 08:50:08 51°20.541 3°1.592 20.852 0.281899 1.636477 -0.965744
2010-06-10 08:50:13 51°20.547 3°1.62 20.8281 0.281899 1.63645 -1.000568
2010-06-10 08:50:17 51°20.552 3°1.642 20.8473 0.281899 1.636477 -1.000568
2010-06-10 08:50:23 51°20.56 3°1.675 20.8552 0.281899 1.636504 -1.000568
2010-06-10 08:50:27 51°20.565 3°1.698 20.8384 0.281899 1.636477 -1.000568
2010-06-10 08:50:32 51°20.572 3°1.725 20.8516 0.281899 1.636477 -1.000568
2010-06-10 08:50:38 51°20.579 3°1.759 20.8498 0.281899 1.636531 -1.035392
2010-06-10 08:50:43 51°20.586 3°1.786 20.8533 0.281899 1.636504 -1.000568
2010-06-10 08:50:48 51°20.592 3°1.814 20.8434 0.281899 1.636504 -1.000568
2010-06-10 08:50:53 51°20.598 3°1.842 20.8494 0.281899 1.636531 -1.000568
2010-06-10 08:50:58 51°20.605 3°1.87 20.8544 0.281899 1.636531 -1.000568
2010-06-10 08:51:03 51°20.612 3°1.898 20.8478 0.281899 1.636531 -1.000568
2010-06-10 08:51:08 51°20.618 3°1.925 20.8515 0.281899 1.636558 -1.000568
2010-06-10 08:51:13 51°20.625 3°1.953 20.8575 0.281899 1.636531 -1.000568
2010-06-10 08:51:17 51°20.63 3°1.976 20.8418 0.281899 1.636504 -1.000568
2010-06-10 08:51:23 51°20.638 3°2.009 20.8548 0.281899 1.636531 -1.000568
2010-06-10 08:51:28 51°20.644 3°2.037 20.8573 0.281899 1.636558 -1.000568
2010-06-10 08:51:33 51°20.651 3°2.065 20.8584 0.281899 1.636558 -1.000568
2010-06-10 08:51:37 51°20.656 3°2.087 20.855 0.281899 1.636585 -1.000568
2010-06-10 08:51:42 51°20.663 3°2.115 20.8483 0.281899 1.636585 -1.000568
2010-06-10 08:51:48 51°20.671 3°2.148 20.8645 0.281899 1.636531 -0.965744
2010-06-10 08:51:53 51°20.677 3°2.176 20.8506 0.281899 1.636585 -1.000568
2010-06-10 08:51:57 51°20.683 3°2.199 20.8651 0.281899 1.636612 -1.000568
2010-06-10 08:52:03 51°20.69 3°2.232 20.8465 0.281899 1.636612 -1.000568
2010-06-10 08:52:08 51°20.697 3°2.26 20.8706 0.281899 1.636612 -1.000568
2010-06-10 08:52:13 51°20.703 3°2.288 20.8558 0.281899 1.636585 -0.965744
2010-06-10 08:52:18 51°20.71 3°2.316 20.861 0.281899 1.636666 -0.965744
2010-06-10 08:52:23 51°20.716 3°2.344 20.8477 0.281899 1.636585 -1.000568
2010-06-10 08:52:28 51°20.723 3°2.372 20.862 0.281899 1.636666 -1.000568
2010-06-10 08:52:33 51°20.729 3°2.4 20.8639 0.281899 1.636666 -1.000568
2010-06-10 08:52:38 51°20.735 3°2.428 20.8639 0.281899 1.636639 -1.035392
2010-06-10 08:52:42 51°20.741 3°2.45 20.8698 0.281899 1.636693 -1.000568
2010-06-10 08:52:48 51°20.748 3°2.484 20.8546 0.281899 1.636666 -1.000568
2010-06-10 08:52:53 51°20.755 3°2.512 20.8751 0.281899 1.636639 -1.000568
2010-06-10 08:52:58 51°20.761 3°2.54 20.8689 0.281899 1.636666 -0.965744
2010-06-10 08:53:03 51°20.767 3°2.568 20.8661 0.281899 1.636666 -0.965744
2010-06-10 08:53:08 51°20.774 3°2.596 20.865 0.281899 1.636639 -1.000568
2010-06-10 08:53:13 51°20.78 3°2.624 20.8683 0.281899 1.636693 -1.000568
2010-06-10 08:53:17 51°20.786 3°2.647 20.8659 0.281899 1.636666 -1.000568
2010-06-10 08:53:23 51°20.793 3°2.68 20.8735 0.281899 1.636666 -1.000568
2010-06-10 08:53:28 51°20.8 3°2.708 20.8732 0.281899 1.63672 -1.000568
2010-06-10 08:53:33 51°20.807 3°2.736 20.87 0.281899 1.63672 -1.000568
2010-06-10 08:53:37 51°20.812 3°2.758 20.872 0.281899 1.636666 -1.000568
2010-06-10 08:53:43 51°20.819 3°2.792 20.8742 0.281899 1.636693 -1.000568
2010-06-10 08:53:48 51°20.826 3°2.82 20.876 0.281899 1.636693 -1.000568
2010-06-10 08:53:53 51°20.832 3°2.849 20.8758 0.281899 1.636666 -1.000568
2010-06-10 08:53:58 51°20.839 3°2.876 20.8775 0.281899 1.636747 -1.000568
2010-06-10 08:54:02 51°20.844 3°2.899 20.8647 0.281899 1.636747 -1.000568
2010-06-10 08:54:08 51°20.852 3°2.932 20.8859 0.281899 1.63672 -0.965744
2010-06-10 08:54:13 51°20.859 3°2.961 20.8738 0.281899 1.636747 -1.000568
2010-06-10 08:54:17 51°20.864 3°2.983 20.8638 0.281899 1.636774 -1.000568
2010-06-10 08:54:23 51°20.872 3°3.016 20.867 0.281899 1.636747 -0.965744
2010-06-10 08:54:27 51°20.877 3°3.038 20.8821 0.281899 1.63672 -1.000568
2010-06-10 08:54:33 51°20.885 3°3.072 20.8821 0.281899 1.63672 -1.000568
2010-06-10 08:54:38 51°20.892 3°3.1 20.8853 0.281899 1.636747 -1.000568
2010-06-10 08:54:43 51°20.899 3°3.128 20.8809 0.281899 1.636747 -1.000568
2010-06-10 08:54:48 51°20.905 3°3.156 20.8837 0.281899 1.636747 -0.965744
2010-06-10 08:54:53 51°20.912 3°3.184 20.8671 0.281899 1.636747 -0.965744
2010-06-10 08:54:58 51°20.918 3°3.212 20.8849 0.281899 1.636801 -1.035392
2010-06-10 08:55:02 51°20.923 3°3.234 20.8825 0.281899 1.636801 -1.035392
2010-06-10 08:55:08 51°20.931 3°3.268 20.8785 0.281899 1.636801 -0.965744
2010-06-10 08:55:13 51°20.938 3°3.296 20.8932 0.281899 1.636774 -0.965744
2010-06-10 08:55:17 51°20.943 3°3.319 20.8753 0.281899 1.636774 -1.000568
2010-06-10 08:55:23 51°20.951 3°3.352 20.8724 0.281899 1.636774 -1.000568
2010-06-10 08:55:28 51°20.957 3°3.381 20.8809 0.281899 1.636774 -0.965744
2010-06-10 08:55:32 51°20.963 3°3.403 20.8899 0.281899 1.636774 -0.965744
2010-06-10 08:55:37 51°20.969 3°3.431 20.8896 0.281899 1.636827 -1.000568
2010-06-10 08:55:43 51°20.977 3°3.465 20.8968 0.281899 1.636827 -1.000568
2010-06-10 08:55:48 51°20.984 3°3.492 20.8766 0.281899 1.636827 -1.000568
2010-06-10 08:55:53 51°20.991 3°3.52 20.8932 0.281899 1.636801 -1.000568
2010-06-10 08:55:57 51°20.996 3°3.543 20.8725 0.281899 1.636801 -1.000568
2010-06-10 08:56:03 51°21.004 3°3.577 20.896 0.281899 1.636801 -1.000568
2010-06-10 08:56:08 51°21.011 3°3.605 20.8967 0.281899 1.636827 -1.000568
2010-06-10 08:56:13 51°21.018 3°3.633 20.8843 0.281899 1.636854 -1.000568
2010-06-10 08:56:17 51°21.023 3°3.655 20.8923 0.281899 1.636854 -0.965744
2010-06-10 08:56:22 51°21.03 3°3.684 20.8947 0.281899 1.636854 -1.000568
2010-06-10 08:56:28 51°21.038 3°3.717 20.8929 0.281899 1.636881 -1.000568
2010-06-10 08:56:33 51°21.044 3°3.745 20.8914 0.281899 1.636881 -1.000568
2010-06-10 08:56:37 51°21.05 3°3.768 20.9028 0.281899 1.636881 -1.000568
2010-06-10 08:56:43 51°21.057 3°3.802 20.893 0.281899 1.636854 -1.000568
2010-06-10 08:56:48 51°21.064 3°3.83 20.9071 0.281899 1.636881 -1.000568
2010-06-10 08:56:53 51°21.071 3°3.858 20.8925 0.281899 1.636881 -1.000568
2010-06-10 08:56:58 51°21.078 3°3.886 20.9047 0.281899 1.636854 -0.965744
2010-06-10 08:57:02 51°21.083 3°3.909 20.8809 0.281899 1.636854 -0.965744
2010-06-10 08:57:08 51°21.091 3°3.942 20.8852 0.281899 1.636908 -1.000568
2010-06-10 08:57:13 51°21.098 3°3.97 20.9037 0.281899 1.636908 -1.035392
2010-06-10 08:57:18 51°21.105 3°3.998 20.9108 0.281899 1.636908 -1.035392
2010-06-10 08:57:23 51°21.111 3°4.026 20.9011 0.281899 1.636908 -1.000568
2010-06-10 08:57:28 51°21.118 3°4.055 20.9073 0.281899 1.636935 -0.965744
2010-06-10 08:57:33 51°21.125 3°4.083 20.9114 0.281899 1.636935 -0.965744
2010-06-10 08:57:38 51°21.131 3°4.111 20.9066 0.281899 1.636935 -1.035392
2010-06-10 08:57:43 51°21.138 3°4.139 20.9117 0.281899 1.636962 -1.000568
2010-06-10 08:57:48 51°21.145 3°4.167 20.9109 0.281899 1.636935 -1.000568
2010-06-10 08:57:53 51°21.152 3°4.196 20.9082 0.281899 1.636962 -1.000568
2010-06-10 08:57:58 51°21.159 3°4.223 20.9095 0.281899 1.636935 -0.965744
2010-06-10 08:58:03 51°21.165 3°4.251 20.9056 0.281899 1.636935 -0.965744
2010-06-10 08:58:08 51°21.172 3°4.28 20.9071 0.281899 1.636962 -1.000568
2010-06-10 08:58:13 51°21.179 3°4.308 20.9022 0.281899 1.636989 -1.035392
2010-06-10 08:58:17 51°21.184 3°4.331 20.8974 0.281899 1.636962 -1.000568
2010-06-10 08:58:23 51°21.192 3°4.365 20.9174 0.281899 1.637016 -1.000568
2010-06-10 08:58:28 51°21.199 3°4.392 20.9052 0.281899 1.637016 -1.000568
2010-06-10 08:58:33 51°21.205 3°4.421 20.919 0.281899 1.637016 -1.000568
2010-06-10 08:58:37 51°21.21 3°4.443 20.907 0.281899 1.637016 -1.000568
2010-06-10 08:58:43 51°21.219 3°4.477 20.9166 0.281899 1.637016 -1.000568
2010-06-10 08:58:48 51°21.226 3°4.505 20.9006 0.281899 1.637016 -0.965744
2010-06-10 08:58:53 51°21.232 3°4.534 20.9148 0.281899 1.636989 -1.000568
2010-06-10 08:58:58 51°21.239 3°4.562 20.9178 0.281899 1.637043 -0.965744
2010-06-10 08:59:02 51°21.244 3°4.585 20.9171 0.281899 1.637043 -0.965744
2010-06-10 08:59:08 51°21.252 3°4.618 20.918 0.281899 1.637016 -1.000568
2010-06-10 08:59:13 51°21.259 3°4.647 20.9223 0.281899 1.63707 -1.000568
2010-06-10 08:59:18 51°21.266 3°4.675 20.9117 0.281899 1.637043 -1.000568
2010-06-10 08:59:22 51°21.271 3°4.698 20.9223 0.281899 1.63707 -1.000568
2010-06-10 08:59:28 51°21.279 3°4.731 20.9134 0.281795 1.63643 -1.000568
2010-06-10 08:59:33 51°21.286 3°4.76 20.9208 0.281795 1.63643 -1.000568
2010-06-10 08:59:38 51°21.293 3°4.788 20.9077 0.281899 1.63707 -0.965744
2010-06-10 08:59:43 51°21.299 3°4.817 20.9123 0.281899 1.63707 -1.000568
2010-06-10 08:59:48 51°21.306 3°4.845 20.9208 0.281795 1.63643 -0.965744
2010-06-10 08:59:53 51°21.312 3°4.873 20.9166 0.281899 1.637124 -1.000568
2010-06-10 08:59:58 51°21.32 3°4.901 20.9254 0.281899 1.637151 -1.000568
2010-06-10 09:00:03 51°21.326 3°4.929 20.9077 0.281899 1.637151 -1.000568
2010-06-10 09:00:08 51°21.333 3°4.958 20.9255 0.281899 1.63707 -1.000568
2010-06-10 09:00:13 51°21.339 3°4.986 20.927 0.281899 1.637124 -1.000568
2010-06-10 09:00:17 51°21.345 3°5.009 20.9265 0.281899 1.637124 -1.000568
2010-06-10 09:00:23 51°21.353 3°5.043 20.9167 0.281899 1.637097 -1.000568
2010-06-10 09:00:28 51°21.359 3°5.072 20.9214 0.281899 1.637124 -0.965744
2010-06-10 09:00:33 51°21.366 3°5.1 20.9249 0.281899 1.637124 -0.965744
2010-06-10 09:00:37 51°21.371 3°5.123 20.9316 0.281899 1.637151 -1.000568
2010-06-10 09:00:42 51°21.378 3°5.151 20.9302 0.281899 1.637151 -0.965744
2010-06-10 09:00:48 51°21.386 3°5.185 20.9285 0.281899 1.637178 -0.965744
2010-06-10 09:00:53 51°21.393 3°5.214 20.9281 0.281899 1.637178 -1.000568
2010-06-10 09:00:57 51°21.398 3°5.236 20.9331 0.281899 1.637178 -1.000568
2010-06-10 09:01:03 51°21.406 3°5.27 20.9312 0.281899 1.637178 -1.000568
2010-06-10 09:01:07 51°21.412 3°5.293 20.9343 0.281899 1.637151 -0.965744
2010-06-10 09:01:13 51°21.42 3°5.327 20.9391 0.281899 1.637205 -1.000568
2010-06-10 09:01:18 51°21.427 3°5.356 20.9281 0.281899 1.637178 -1.000568
2010-06-10 09:01:22 51°21.432 3°5.379 20.9269 0.281899 1.637205 -1.000568
2010-06-10 09:01:28 51°21.44 3°5.413 20.9438 0.281899 1.637232 -1.000568
2010-06-10 09:01:33 51°21.447 3°5.441 20.9375 0.281899 1.637232 -1.000568
2010-06-10 09:01:38 51°21.454 3°5.47 20.9353 0.281899 1.637205 -1.000568
2010-06-10 09:01:42 51°21.459 3°5.493 20.9413 0.281899 1.637259 -0.965744
2010-06-10 09:01:48 51°21.467 3°5.527 20.9377 0.281899 1.637205 -1.000568
2010-06-10 09:01:53 51°21.474 3°5.555 20.9423 0.281899 1.637232 -0.965744
2010-06-10 09:01:58 51°21.48 3°5.584 20.9401 0.281899 1.637205 -1.000568
2010-06-10 09:02:03 51°21.488 3°5.613 20.9448 0.281899 1.637205 -1.000568
2010-06-10 09:02:08 51°21.494 3°5.642 20.9317 0.281899 1.637259 -1.000568
2010-06-10 09:02:13 51°21.501 3°5.67 20.9444 0.281899 1.637259 -1.000568
2010-06-10 09:02:17 51°21.506 3°5.693 20.939 0.281899 1.637232 -1.000568
2010-06-10 09:02:23 51°21.515 3°5.727 20.944 0.281899 1.637312 -0.965744
2010-06-10 09:02:28 51°21.521 3°5.756 20.9428 0.281899 1.637286 -1.000568
2010-06-10 09:02:33 51°21.528 3°5.785 20.9459 0.281899 1.637286 -1.000568
2010-06-10 09:02:37 51°21.533 3°5.808 20.9551 0.281899 1.637312 -1.000568
2010-06-10 09:02:43 51°21.541 3°5.842 20.9442 0.281795 1.636646 -1.000568
2010-06-10 09:02:48 51°21.548 3°5.871 20.9425 0.281899 1.637286 -1.000568
2010-06-10 09:02:53 51°21.555 3°5.9 20.9374 0.281899 1.637286 -1.000568
2010-06-10 09:02:57 51°21.56 3°5.923 20.9435 0.281899 1.637312 -1.035392
2010-06-10 09:03:03 51°21.569 3°5.957 20.9516 0.281899 1.637312 -1.035392
2010-06-10 09:03:08 51°21.575 3°5.986 20.953 0.281899 1.637312 -1.000568
2010-06-10 09:03:13 51°21.582 3°6.015 20.9435 0.281899 1.637312 -1.000568
2010-06-10 09:03:18 51°21.589 3°6.044 20.9556 0.281899 1.637286 -1.000568
2010-06-10 09:03:22 51°21.594 3°6.067 20.9427 0.281899 1.637312 -1.000568
2010-06-10 09:03:28 51°21.603 3°6.102 20.9512 0.281899 1.637339 -0.965744
2010-06-10 09:03:33 51°21.609 3°6.131 20.958 0.281899 1.637339 -0.965744
2010-06-10 09:03:38 51°21.616 3°6.16 20.9485 0.281899 1.637312 -1.000568
2010-06-10 09:03:42 51°21.621 3°6.183 20.9554 0.281795 1.6367 -0.965744
2010-06-10 09:03:48 51°21.63 3°6.217 20.9451 0.281899 1.637312 -0.965744
2010-06-10 09:03:52 51°21.635 3°6.24 20.9552 0.281899 1.637339 -1.000568
2010-06-10 09:03:58 51°21.643 3°6.275 20.9537 0.281795 1.636726 -1.000568
2010-06-10 09:04:02 51°21.649 3°6.298 20.955 0.281795 1.636726 -1.000568
2010-06-10 09:04:08 51°21.657 3°6.332 20.9426 0.281899 1.637339 -1.000568
2010-06-10 09:04:13 51°21.663 3°6.361 20.9591 0.281899 1.637366 -1.035392
2010-06-10 09:04:17 51°21.669 3°6.384 20.9676 0.281899 1.637339 -1.000568
2010-06-10 09:04:23 51°21.677 3°6.419 20.954 0.281899 1.637366 -1.035392
2010-06-10 09:04:28 51°21.684 3°6.448 20.9505 0.281899 1.637393 -0.965744
2010-06-10 09:04:32 51°21.69 3°6.471 20.9671 0.281899 1.637393 -0.965744
2010-06-10 09:04:37 51°21.697 3°6.5 20.949 0.281899 1.637393 -1.000568
2010-06-10 09:04:43 51°21.705 3°6.534 20.9489 0.281899 1.63742 -0.965744
2010-06-10 09:04:48 51°21.712 3°6.563 20.9473 0.281899 1.637366 -0.965744
2010-06-10 09:04:53 51°21.718 3°6.592 20.9575 0.281899 1.637366 -1.000568
2010-06-10 09:04:57 51°21.723 3°6.615 20.9592 0.281899 1.63742 -1.000568
2010-06-10 09:05:03 51°21.731 3°6.65 20.9575 0.281899 1.63742 -1.000568
2010-06-10 09:05:08 51°21.737 3°6.679 20.9586 0.281795 1.636726 -1.000568
2010-06-10 09:05:13 51°21.743 3°6.709 20.9671 0.281899 1.637447 -1.000568
2010-06-10 09:05:17 51°21.747 3°6.733 20.9663 0.281795 1.636753 -1.000568
2010-06-10 09:05:22 51°21.753 3°6.762 20.9686 0.281899 1.637447 -1.000568
2010-06-10 09:05:28 51°21.761 3°6.797 20.9584 0.281899 1.637474 -1.000568
2010-06-10 09:05:33 51°21.767 3°6.827 20.9635 0.281899 1.637474 -1.000568
2010-06-10 09:05:37 51°21.771 3°6.85 20.9672 0.281899 1.637393 -0.965744
2010-06-10 09:05:43 51°21.778 3°6.885 20.9739 0.281899 1.637393 -0.965744
2010-06-10 09:05:48 51°21.784 3°6.915 20.9727 0.281795 1.63678 -1.000568
2010-06-10 09:05:53 51°21.79 3°6.944 20.9734 0.281899 1.63742 -1.000568
2010-06-10 09:05:58 51°21.796 3°6.974 20.973 0.281899 1.637447 -1.000568
2010-06-10 09:06:02 51°21.8 3°6.997 20.9786 0.281899 1.637447 -1.000568
2010-06-10 09:06:08 51°21.807 3°7.033 20.9773 0.281899 1.637447 -1.000568
2010-06-10 09:06:13 51°21.813 3°7.062 20.9666 0.281795 1.636834 -1.000568
2010-06-10 09:06:17 51°21.817 3°7.086 20.9681 0.281795 1.636861 -1.000568
2010-06-10 09:06:23 51°21.824 3°7.121 20.9756 0.281899 1.637501 -1.000568
2010-06-10 09:06:28 51°21.829 3°7.151 20.9717 0.281795 1.636834 -1.000568
2010-06-10 09:06:32 51°21.833 3°7.175 20.967 0.281795 1.636834 -1.000568
2010-06-10 09:06:38 51°21.839 3°7.211 20.9676 0.281899 1.637447 -1.000568
2010-06-10 09:06:43 51°21.844 3°7.241 20.9752 0.281899 1.637447 -1.000568
2010-06-10 09:06:48 51°21.848 3°7.271 20.99 0.281795 1.636861 -1.000568
2010-06-10 09:06:53 51°21.853 3°7.301 20.9796 0.281795 1.636915 -1.000568
2010-06-10 09:06:57 51°21.857 3°7.325 20.986 0.281899 1.637528 -1.000568
2010-06-10 09:07:03 51°21.862 3°7.362 20.9782 0.281899 1.637528 -1.000568
2010-06-10 09:07:08 51°21.867 3°7.392 20.9909 0.281795 1.636915 -1.000568
2010-06-10 09:07:13 51°21.872 3°7.422 20.9752 0.281795 1.636888 -1.000568
2010-06-10 09:07:17 51°21.876 3°7.446 20.9912 0.281795 1.636915 -1.000568
2010-06-10 09:07:23 51°21.881 3°7.482 20.9714 0.281899 1.637528 -1.000568
2010-06-10 09:07:28 51°21.886 3°7.512 20.9894 0.281899 1.637582 -1.000568
2010-06-10 09:07:33 51°21.89 3°7.542 20.9761 0.281899 1.637582 -1.000568
2010-06-10 09:07:38 51°21.895 3°7.572 20.9858 0.281795 1.636888 -0.965744
2010-06-10 09:07:42 51°21.899 3°7.596 20.9974 0.281795 1.636969 -1.000568
2010-06-10 09:07:48 51°21.904 3°7.633 20.9773 0.281795 1.636942 -0.965744
2010-06-10 09:07:53 51°21.909 3°7.663 20.9952 0.281795 1.636996 -1.000568
2010-06-10 09:07:57 51°21.912 3°7.687 20.9711 0.281795 1.636969 -1.000568
2010-06-10 09:08:03 51°21.918 3°7.724 20.9921 0.281795 1.636969 -1.000568
2010-06-10 09:08:07 51°21.921 3°7.748 20.9878 0.281899 1.637609 -1.000568
2010-06-10 09:08:13 51°21.927 3°7.784 20.9991 0.281899 1.637636 -1.000568
2010-06-10 09:08:18 51°21.932 3°7.815 20.9919 0.281899 1.637663 -1.000568
2010-06-10 09:08:23 51°21.937 3°7.845 20.9853 0.281899 1.637663 -1.035392
2010-06-10 09:08:28 51°21.942 3°7.875 20.9906 0.281795 1.637023 -1.000568
2010-06-10 09:08:32 51°21.945 3°7.9 20.9953 0.281795 1.637023 -1.000568
2010-06-10 09:08:38 51°21.951 3°7.936 20.9912 0.281899 1.637663 -1.000568
2010-06-10 09:08:42 51°21.955 3°7.96 20.9955 0.281795 1.637023 -0.965744
2010-06-10 09:08:48 51°21.961 3°7.996 20.9905 0.281795 1.63705 -1.000568
2010-06-10 09:08:53 51°21.965 3°8.027 20.9984 0.281899 1.63769 -1.035392
2010-06-10 09:08:58 51°21.969 3°8.058 20.9897 0.281795 1.63705 -1.000568
2010-06-10 09:09:03 51°21.974 3°8.088 21.0022 0.281795 1.63705 -1.000568
2010-06-10 09:09:08 51°21.978 3°8.119 20.9942 0.281899 1.637717 -1.035392
2010-06-10 09:09:13 51°21.981 3°8.15 20.9982 0.281795 1.63705 -1.035392
2010-06-10 09:09:17 51°21.984 3°8.175 21.0102 0.281795 1.63705 -0.965744
2010-06-10 09:09:23 51°21.988 3°8.212 20.9881 0.281795 1.637104 -1.000568
2010-06-10 09:09:28 51°21.991 3°8.243 20.997 0.281795 1.637104 -1.035392
2010-06-10 09:09:33 51°21.994 3°8.274 20.9851 0.281795 1.637104 -1.035392
2010-06-10 09:09:38 51°21.997 3°8.305 20.9948 0.281795 1.637131 -1.035392
2010-06-10 09:09:42 51°21.999 3°8.33 20.987 0.281795 1.637131 -0.965744
2010-06-10 09:09:48 51°22.003 3°8.367 21.0108 0.281899 1.637825 -1.000568
2010-06-10 09:09:53 51°22.006 3°8.398 20.9959 0.281899 1.637798 -1.000568
2010-06-10 09:09:57 51°22.009 3°8.423 21.01 0.281795 1.637158 -1.000568
2010-06-10 09:10:02 51°22.012 3°8.454 20.9935 0.281795 1.637158 -1.000568
2010-06-10 09:10:08 51°22.016 3°8.491 21.0035 0.281795 1.637158 -1.000568
2010-06-10 09:10:13 51°22.019 3°8.522 21.004 0.281795 1.637185 -1.000568
2010-06-10 09:10:17 51°22.021 3°8.547 21.0092 0.281795 1.637158 -1.000568
2010-06-10 09:10:23 51°22.025 3°8.584 21.001 0.281795 1.637239 -1.000568
2010-06-10 09:10:27 51°22.028 3°8.609 21.0067 0.281795 1.637212 -1.000568
2010-06-10 09:10:33 51°22.031 3°8.647 21.0082 0.281795 1.637212 -1.000568
2010-06-10 09:10:38 51°22.034 3°8.678 21.0073 0.281795 1.637266 -1.035392
2010-06-10 09:10:43 51°22.037 3°8.709 20.9995 0.281795 1.637212 -1.000568
2010-06-10 09:10:48 51°22.04 3°8.74 21.012 0.281795 1.637293 -1.000568
2010-06-10 09:10:52 51°22.043 3°8.765 21.0104 0.281795 1.637239 -1.000568
2010-06-10 09:10:58 51°22.047 3°8.802 21.0113 0.281795 1.637239 -1.000568
2010-06-10 09:11:02 51°22.049 3°8.827 21.0176 0.281795 1.637239 -1.000568
2010-06-10 09:11:08 51°22.053 3°8.865 21.0222 0.281795 1.637239 -1.000568
2010-06-10 09:11:13 51°22.056 3°8.896 20.9979 0.281795 1.637239 -0.965744
2010-06-10 09:11:18 51°22.06 3°8.927 21.0271 0.281795 1.637212 -1.000568
2010-06-10 09:11:23 51°22.063 3°8.958 21.0173 0.281795 1.637212 -1.000568
2010-06-10 09:11:28 51°22.066 3°8.989 21.0128 0.281795 1.637239 -1.000568
2010-06-10 09:11:33 51°22.069 3°9.021 21.0009 0.281795 1.637239 -1.000568
2010-06-10 09:11:37 51°22.072 3°9.046 21.0253 0.281795 1.637293 -1.000568
2010-06-10 09:11:43 51°22.076 3°9.084 21.0208 0.281795 1.637293 -1.000568
2010-06-10 09:11:48 51°22.079 3°9.115 21.0323 0.281795 1.637346 -1.035392
2010-06-10 09:11:53 51°22.082 3°9.146 21.016 0.281795 1.63732 -1.035392
2010-06-10 09:11:58 51°22.086 3°9.177 21.0281 0.281795 1.637373 -1.000568
2010-06-10 09:12:02 51°22.088 3°9.203 21.0021 0.281795 1.637373 -1.000568
2010-06-10 09:12:08 51°22.092 3°9.24 21.0326 0.281795 1.637373 -0.965744
2010-06-10 09:12:13 51°22.095 3°9.272 21.0171 0.281795 1.637346 -1.000568
2010-06-10 09:12:17 51°22.098 3°9.297 21.0292 0.281795 1.637373 -1.000568
2010-06-10 09:12:22 51°22.101 3°9.328 21.0227 0.281795 1.637346 -1.000568
2010-06-10 09:12:28 51°22.105 3°9.365 21.0243 0.281795 1.637373 -1.000568
2010-06-10 09:12:33 51°22.108 3°9.397 21.0331 0.281795 1.637373 -1.000568
2010-06-10 09:12:37 51°22.11 3°9.422 21.0119 0.281795 1.637346 -1.000568
2010-06-10 09:12:43 51°22.114 3°9.459 21.0114 0.281795 1.6374 -0.965744
2010-06-10 09:12:47 51°22.117 3°9.484 21.0449 0.281795 1.6374 -1.035392
2010-06-10 09:12:53 51°22.12 3°9.522 21.0145 0.281795 1.637373 -1.000568
2010-06-10 09:12:58 51°22.124 3°9.553 21.0322 0.281795 1.6374 -1.000568
2010-06-10 09:13:03 51°22.127 3°9.585 21.0379 0.281795 1.6374 -1.000568
2010-06-10 09:13:08 51°22.13 3°9.616 21.0341 0.281795 1.6374 -0.965744
2010-06-10 09:13:12 51°22.133 3°9.641 19.8297 0.281795 1.6374 -1.000568
2010-06-10 09:13:18 51°22.137 3°9.679 17.1933 0.281795 1.637454 -1.000568
2010-06-10 09:13:23 51°22.14 3°9.71 16.653 0.281378 1.631884 -0.861272
2010-06-10 09:13:28 51°22.144 3°9.742 16.3904 0.280961 1.618698 -0.93092
2010-06-10 09:13:33 51°22.147 3°9.773 16.0593 0.280961 1.618698 -0.93092
2010-06-10 09:13:37 51°22.15 3°9.798 15.8979 0.306505 1.774643 -0.304087
2010-06-10 09:13:43 51°22.154 3°9.836 15.7837 0.59262 3.565755 0.044153
2010-06-10 09:13:48 51°22.158 3°9.868 15.7125 2.335201 15.667401 0.740634
2010-06-10 09:13:53 51°22.161 3°9.899 15.697 2.608055 18.065348 1.193347
2010-06-10 09:13:57 51°22.164 3°9.925 15.675 3.179299 22.892296 1.158523
2010-06-10 09:14:03 51°22.168 3°9.962 15.6513 3.179299 22.892296 1.158523
2010-06-10 09:14:08 51°22.171 3°9.994 15.6269 3.694783 27.582058 1.088875
2010-06-10 09:14:13 51°22.175 3°10.025 15.6432 3.834633 29.086485 1.054051
2010-06-10 09:14:17 51°22.178 3°10.051 15.6264 3.863224 29.694797 1.019227
2010-06-10 09:14:22 51°22.181 3°10.082 15.5984 3.869978 29.969603 1.019227
2010-06-10 09:14:28 51°22.186 3°10.12 15.5787 3.866711 30.107923 0.949579
2010-06-10 09:14:33 51°22.19 3°10.151 15.5768 3.866711 30.107923 0.949579
2010-06-10 09:14:37 51°22.194 3°10.176 15.5627 3.868189 30.2327 0.914755
2010-06-10 09:14:43 51°22.198 3°10.214 15.5443 3.858698 30.224175 0.914755
2010-06-10 09:14:47 51°22.202 3°10.239 15.5232 3.856589 30.267071 0.845107
2010-06-10 09:14:53 51°22.208 3°10.276 15.533 3.84351 30.178982 0.879931
2010-06-10 09:14:58 51°22.213 3°10.307 15.5418 3.849523 30.25768 0.810283
2010-06-10 09:15:02 51°22.217 3°10.332 15.5297 3.849523 30.25768 0.810283
2010-06-10 09:15:08 51°22.224 3°10.368 15.5383 3.845304 30.248695 0.810283
2010-06-10 09:15:12 51°22.228 3°10.392 15.5205 3.843406 30.256602 0.810283
2010-06-10 09:15:18 51°22.236 3°10.429 15.5228 3.838133 30.226958 0.775459
2010-06-10 09:15:22 51°22.24 3°10.454 15.5088 3.836551 30.231359 0.775459
2010-06-10 09:15:28 51°22.248 3°10.49 15.4969 3.833282 30.222111 0.70581
2010-06-10 09:15:33 51°22.254 3°10.52 15.5074 3.833282 30.222111 0.70581
2010-06-10 09:15:38 51°22.261 3°10.55 15.5077 3.827481 30.179228 0.740634
2010-06-10 09:15:43 51°22.269 3°10.58 15.4978 3.831805 30.224016 0.740634
2010-06-10 09:15:48 51°22.275 3°10.609 15.5193 3.83054 30.220914 0.740634
2010-06-10 09:15:53 51°22.283 3°10.638 15.5236 3.830118 30.222358 0.70581
2010-06-10 09:15:57 51°22.288 3°10.661 15.5076 3.825794 30.191261 0.740634